<?xml version="1.0"?>
<gpx xmlns="http://www.topografix.com/GPX/1/1" xmlns:xsi="http://www.w3.org/2001/XMLSchema-instance" version="1.1" creator="GPX RubyGem 1.0.0 -- http://dougfales.github.io/gpx/" xsi:schemaLocation="http://www.topografix.com/GPX/1/1 http://www.topografix.com/GPX/1/1/gpx.xsd">
  <metadata>
    <name/>
    <time>2026-05-08T05:57:30+00:00</time>
    <bound minlat="90.0" minlon="180.0" maxlat="-90.0" maxlon="-180.0"/>
  </metadata>
  <trk>
    <name/>
    <trkseg>
      <trkpt lat="44.91765" lon="6.41614">
        <time>1970-01-01T00:00:00+00:00</time>
        <ele>1871.0</ele>
      </trkpt>
      <trkpt lat="44.91765" lon="6.41614">
        <time>1970-01-01T00:00:00+00:00</time>
        <ele>1871.0</ele>
      </trkpt>
      <trkpt lat="44.9177882969075" lon="6.4159775962921035">
        <time>1970-01-01T00:00:00+00:00</time>
        <ele>1871.0</ele>
      </trkpt>
      <trkpt lat="44.91792659381501" lon="6.415815192584207">
        <time>1970-01-01T00:00:00+00:00</time>
        <ele>1872.0</ele>
      </trkpt>
      <trkpt lat="44.91806489072252" lon="6.41565278887631">
        <time>1970-01-01T00:00:00+00:00</time>
        <ele>1873.0</ele>
      </trkpt>
      <trkpt lat="44.91820318763003" lon="6.415490385168413">
        <time>1970-01-01T00:00:00+00:00</time>
        <ele>1874.0</ele>
      </trkpt>
      <trkpt lat="44.91834148453753" lon="6.415327981460516">
        <time>1970-01-01T00:00:00+00:00</time>
        <ele>1875.0</ele>
      </trkpt>
      <trkpt lat="44.918479781445036" lon="6.41516557775262">
        <time>1970-01-01T00:00:00+00:00</time>
        <ele>1875.0</ele>
      </trkpt>
      <trkpt lat="44.91861807835254" lon="6.415003174044722">
        <time>1970-01-01T00:00:00+00:00</time>
        <ele>1876.0</ele>
      </trkpt>
      <trkpt lat="44.91874" lon="6.41486">
        <time>1970-01-01T00:00:00+00:00</time>
        <ele>1877.0</ele>
      </trkpt>
      <trkpt lat="44.91874" lon="6.41486">
        <time>1970-01-01T00:00:00+00:00</time>
        <ele>1877.0</ele>
      </trkpt>
      <trkpt lat="44.91888036303839" lon="6.414701168140773">
        <time>1970-01-01T00:00:00+00:00</time>
        <ele>1878.0</ele>
      </trkpt>
      <trkpt lat="44.91902072607677" lon="6.414542336281548">
        <time>1970-01-01T00:00:00+00:00</time>
        <ele>1879.0</ele>
      </trkpt>
      <trkpt lat="44.91916108911516" lon="6.414383504422322">
        <time>1970-01-01T00:00:00+00:00</time>
        <ele>1881.0</ele>
      </trkpt>
      <trkpt lat="44.91930145215355" lon="6.414224672563096">
        <time>1970-01-01T00:00:00+00:00</time>
        <ele>1883.0</ele>
      </trkpt>
      <trkpt lat="44.919441815191924" lon="6.414065840703869">
        <time>1970-01-01T00:00:00+00:00</time>
        <ele>1883.0</ele>
      </trkpt>
      <trkpt lat="44.9195" lon="6.414">
        <time>1970-01-01T00:00:00+00:00</time>
        <ele>1884.0</ele>
      </trkpt>
      <trkpt lat="44.9195" lon="6.414">
        <time>1970-01-01T00:00:00+00:00</time>
        <ele>1884.0</ele>
      </trkpt>
      <trkpt lat="44.91961914949992" lon="6.413809716470272">
        <time>1970-01-01T00:00:00+00:00</time>
        <ele>1886.0</ele>
      </trkpt>
      <trkpt lat="44.919738298999846" lon="6.413619432940544">
        <time>1970-01-01T00:00:00+00:00</time>
        <ele>1887.0</ele>
      </trkpt>
      <trkpt lat="44.91985744849977" lon="6.413429149410815">
        <time>1970-01-01T00:00:00+00:00</time>
        <ele>1888.0</ele>
      </trkpt>
      <trkpt lat="44.91997659799969" lon="6.4132388658810875">
        <time>1970-01-01T00:00:00+00:00</time>
        <ele>1890.0</ele>
      </trkpt>
      <trkpt lat="44.920095747499616" lon="6.41304858235136">
        <time>1970-01-01T00:00:00+00:00</time>
        <ele>1892.0</ele>
      </trkpt>
      <trkpt lat="44.92017" lon="6.41293">
        <time>1970-01-01T00:00:00+00:00</time>
        <ele>1892.0</ele>
      </trkpt>
      <trkpt lat="44.92017" lon="6.41293">
        <time>1970-01-01T00:00:00+00:00</time>
        <ele>1892.0</ele>
      </trkpt>
      <trkpt lat="44.92030108169438" lon="6.4127560646747535">
        <time>1970-01-01T00:00:00+00:00</time>
        <ele>1894.0</ele>
      </trkpt>
      <trkpt lat="44.92043216338878" lon="6.4125821293495076">
        <time>1970-01-01T00:00:00+00:00</time>
        <ele>1895.0</ele>
      </trkpt>
      <trkpt lat="44.92056324508316" lon="6.412408194024261">
        <time>1970-01-01T00:00:00+00:00</time>
        <ele>1895.0</ele>
      </trkpt>
      <trkpt lat="44.92069" lon="6.41224">
        <time>1970-01-01T00:00:00+00:00</time>
        <ele>1897.0</ele>
      </trkpt>
      <trkpt lat="44.92069" lon="6.41224">
        <time>1970-01-01T00:00:00+00:00</time>
        <ele>1897.0</ele>
      </trkpt>
      <trkpt lat="44.92078647357588" lon="6.412025614275821">
        <time>1970-01-01T00:00:00+00:00</time>
        <ele>1898.0</ele>
      </trkpt>
      <trkpt lat="44.92088294715177" lon="6.4118112285516435">
        <time>1970-01-01T00:00:00+00:00</time>
        <ele>1900.0</ele>
      </trkpt>
      <trkpt lat="44.92097942072765" lon="6.411596842827466">
        <time>1970-01-01T00:00:00+00:00</time>
        <ele>1901.0</ele>
      </trkpt>
      <trkpt lat="44.92107589430352" lon="6.4113824571032865">
        <time>1970-01-01T00:00:00+00:00</time>
        <ele>1902.0</ele>
      </trkpt>
      <trkpt lat="44.9211723678794" lon="6.411168071379109">
        <time>1970-01-01T00:00:00+00:00</time>
        <ele>1904.0</ele>
      </trkpt>
      <trkpt lat="44.92123" lon="6.41104">
        <time>1970-01-01T00:00:00+00:00</time>
        <ele>1906.0</ele>
      </trkpt>
      <trkpt lat="44.92123" lon="6.41104">
        <time>1970-01-01T00:00:00+00:00</time>
        <ele>1906.0</ele>
      </trkpt>
      <trkpt lat="44.921353741986444" lon="6.410855649693671">
        <time>1970-01-01T00:00:00+00:00</time>
        <ele>1907.0</ele>
      </trkpt>
      <trkpt lat="44.92147748397288" lon="6.410671299387342">
        <time>1970-01-01T00:00:00+00:00</time>
        <ele>1909.0</ele>
      </trkpt>
      <trkpt lat="44.92160122595932" lon="6.410486949081013">
        <time>1970-01-01T00:00:00+00:00</time>
        <ele>1910.0</ele>
      </trkpt>
      <trkpt lat="44.92172" lon="6.41031">
        <time>1970-01-01T00:00:00+00:00</time>
        <ele>1911.0</ele>
      </trkpt>
      <trkpt lat="44.92172" lon="6.41031">
        <time>1970-01-01T00:00:00+00:00</time>
        <ele>1911.0</ele>
      </trkpt>
      <trkpt lat="44.921840903021355" lon="6.4101219286334565">
        <time>1970-01-01T00:00:00+00:00</time>
        <ele>1911.0</ele>
      </trkpt>
      <trkpt lat="44.9219618060427" lon="6.4099338572669105">
        <time>1970-01-01T00:00:00+00:00</time>
        <ele>1913.0</ele>
      </trkpt>
      <trkpt lat="44.92208" lon="6.40975">
        <time>1970-01-01T00:00:00+00:00</time>
        <ele>1915.0</ele>
      </trkpt>
      <trkpt lat="44.92208" lon="6.40975">
        <time>1970-01-01T00:00:00+00:00</time>
        <ele>1915.0</ele>
      </trkpt>
      <trkpt lat="44.92222438292576" lon="6.409598516274614">
        <time>1970-01-01T00:00:00+00:00</time>
        <ele>1917.0</ele>
      </trkpt>
      <trkpt lat="44.92236876585152" lon="6.409447032549228">
        <time>1970-01-01T00:00:00+00:00</time>
        <ele>1920.0</ele>
      </trkpt>
      <trkpt lat="44.92251314877728" lon="6.409295548823843">
        <time>1970-01-01T00:00:00+00:00</time>
        <ele>1926.0</ele>
      </trkpt>
      <trkpt lat="44.92265753170304" lon="6.409144065098456">
        <time>1970-01-01T00:00:00+00:00</time>
        <ele>1935.0</ele>
      </trkpt>
      <trkpt lat="44.92269" lon="6.40911">
        <time>1970-01-01T00:00:00+00:00</time>
        <ele>1937.0</ele>
      </trkpt>
      <trkpt lat="44.92269" lon="6.40911">
        <time>1970-01-01T00:00:00+00:00</time>
        <ele>1937.0</ele>
      </trkpt>
      <trkpt lat="44.92285419417104" lon="6.40900629841829">
        <time>1970-01-01T00:00:00+00:00</time>
        <ele>1949.0</ele>
      </trkpt>
      <trkpt lat="44.923018388342086" lon="6.40890259683658">
        <time>1970-01-01T00:00:00+00:00</time>
        <ele>1961.0</ele>
      </trkpt>
      <trkpt lat="44.92318258251313" lon="6.40879889525487">
        <time>1970-01-01T00:00:00+00:00</time>
        <ele>1974.0</ele>
      </trkpt>
      <trkpt lat="44.92334677668416" lon="6.40869519367316">
        <time>1970-01-01T00:00:00+00:00</time>
        <ele>1985.0</ele>
      </trkpt>
      <trkpt lat="44.92345" lon="6.40863">
        <time>1970-01-01T00:00:00+00:00</time>
        <ele>1991.0</ele>
      </trkpt>
      <trkpt lat="44.92345" lon="6.40863">
        <time>1970-01-01T00:00:00+00:00</time>
        <ele>1991.0</ele>
      </trkpt>
      <trkpt lat="44.923629864321185" lon="6.408629999999999">
        <time>1970-01-01T00:00:00+00:00</time>
        <ele>2001.0</ele>
      </trkpt>
      <trkpt lat="44.92380972864237" lon="6.40863">
        <time>1970-01-01T00:00:00+00:00</time>
        <ele>2012.0</ele>
      </trkpt>
      <trkpt lat="44.92398959296355" lon="6.40863">
        <time>1970-01-01T00:00:00+00:00</time>
        <ele>2025.0</ele>
      </trkpt>
      <trkpt lat="44.924" lon="6.40863">
        <time>1970-01-01T00:00:00+00:00</time>
        <ele>2026.0</ele>
      </trkpt>
      <trkpt lat="44.924" lon="6.40863">
        <time>1970-01-01T00:00:00+00:00</time>
        <ele>2026.0</ele>
      </trkpt>
      <trkpt lat="44.92417986432119" lon="6.40863">
        <time>1970-01-01T00:00:00+00:00</time>
        <ele>2041.0</ele>
      </trkpt>
      <trkpt lat="44.92435972864237" lon="6.40863">
        <time>1970-01-01T00:00:00+00:00</time>
        <ele>2054.0</ele>
      </trkpt>
      <trkpt lat="44.92445" lon="6.40863">
        <time>1970-01-01T00:00:00+00:00</time>
        <ele>2060.0</ele>
      </trkpt>
      <trkpt lat="44.92445" lon="6.40863">
        <time>1970-01-01T00:00:00+00:00</time>
        <ele>2060.0</ele>
      </trkpt>
      <trkpt lat="44.924619241730284" lon="6.408716008092438">
        <time>1970-01-01T00:00:00+00:00</time>
        <ele>2073.0</ele>
      </trkpt>
      <trkpt lat="44.92478848346056" lon="6.408802016184875">
        <time>1970-01-01T00:00:00+00:00</time>
        <ele>2086.0</ele>
      </trkpt>
      <trkpt lat="44.92495772519084" lon="6.408888024277314">
        <time>1970-01-01T00:00:00+00:00</time>
        <ele>2097.0</ele>
      </trkpt>
      <trkpt lat="44.92506" lon="6.40894">
        <time>1970-01-01T00:00:00+00:00</time>
        <ele>2104.0</ele>
      </trkpt>
      <trkpt lat="44.92506" lon="6.40894">
        <time>1970-01-01T00:00:00+00:00</time>
        <ele>2104.0</ele>
      </trkpt>
      <trkpt lat="44.92523070816733" lon="6.409020019453435">
        <time>1970-01-01T00:00:00+00:00</time>
        <ele>2115.0</ele>
      </trkpt>
      <trkpt lat="44.92540141633466" lon="6.40910003890687">
        <time>1970-01-01T00:00:00+00:00</time>
        <ele>2127.0</ele>
      </trkpt>
      <trkpt lat="44.92557212450198" lon="6.409180058360304">
        <time>1970-01-01T00:00:00+00:00</time>
        <ele>2140.0</ele>
      </trkpt>
      <trkpt lat="44.9257" lon="6.40924">
        <time>1970-01-01T00:00:00+00:00</time>
        <ele>2151.0</ele>
      </trkpt>
      <trkpt lat="44.9257" lon="6.40924">
        <time>1970-01-01T00:00:00+00:00</time>
        <ele>2151.0</ele>
      </trkpt>
      <trkpt lat="44.92587966951129" lon="6.409228179637415">
        <time>1970-01-01T00:00:00+00:00</time>
        <ele>2166.0</ele>
      </trkpt>
      <trkpt lat="44.926059339022586" lon="6.409216359274829">
        <time>1970-01-01T00:00:00+00:00</time>
        <ele>2179.0</ele>
      </trkpt>
      <trkpt lat="44.926239008533884" lon="6.4092045389122445">
        <time>1970-01-01T00:00:00+00:00</time>
        <ele>2190.0</ele>
      </trkpt>
      <trkpt lat="44.926418678045174" lon="6.409192718549659">
        <time>1970-01-01T00:00:00+00:00</time>
        <ele>2204.0</ele>
      </trkpt>
      <trkpt lat="44.92646" lon="6.40919">
        <time>1970-01-01T00:00:00+00:00</time>
        <ele>2208.0</ele>
      </trkpt>
      <trkpt lat="44.92646" lon="6.40919">
        <time>1970-01-01T00:00:00+00:00</time>
        <ele>2208.0</ele>
      </trkpt>
      <trkpt lat="44.92663986432118" lon="6.40919">
        <time>1970-01-01T00:00:00+00:00</time>
        <ele>2223.0</ele>
      </trkpt>
      <trkpt lat="44.92681972864237" lon="6.40919">
        <time>1970-01-01T00:00:00+00:00</time>
        <ele>2237.0</ele>
      </trkpt>
      <trkpt lat="44.92699959296355" lon="6.40919">
        <time>1970-01-01T00:00:00+00:00</time>
        <ele>2249.0</ele>
      </trkpt>
      <trkpt lat="44.92707" lon="6.40919">
        <time>1970-01-01T00:00:00+00:00</time>
        <ele>2253.0</ele>
      </trkpt>
      <trkpt lat="44.92707" lon="6.40919">
        <time>1970-01-01T00:00:00+00:00</time>
        <ele>2253.0</ele>
      </trkpt>
      <trkpt lat="44.92724986432118" lon="6.40919">
        <time>1970-01-01T00:00:00+00:00</time>
        <ele>2261.0</ele>
      </trkpt>
      <trkpt lat="44.927429728642366" lon="6.40919">
        <time>1970-01-01T00:00:00+00:00</time>
        <ele>2268.0</ele>
      </trkpt>
      <trkpt lat="44.92755" lon="6.40919">
        <time>1970-01-01T00:00:00+00:00</time>
        <ele>2272.0</ele>
      </trkpt>
      <trkpt lat="44.92755" lon="6.40919">
        <time>1970-01-01T00:00:00+00:00</time>
        <ele>2272.0</ele>
      </trkpt>
      <trkpt lat="44.927728655910386" lon="6.409160600926139">
        <time>1970-01-01T00:00:00+00:00</time>
        <ele>2277.0</ele>
      </trkpt>
      <trkpt lat="44.92790731182077" lon="6.4091312018522775">
        <time>1970-01-01T00:00:00+00:00</time>
        <ele>2281.0</ele>
      </trkpt>
      <trkpt lat="44.92808596773116" lon="6.409101802778418">
        <time>1970-01-01T00:00:00+00:00</time>
        <ele>2287.0</ele>
      </trkpt>
      <trkpt lat="44.928264623641546" lon="6.409072403704556">
        <time>1970-01-01T00:00:00+00:00</time>
        <ele>2292.0</ele>
      </trkpt>
      <trkpt lat="44.92834" lon="6.40906">
        <time>1970-01-01T00:00:00+00:00</time>
        <ele>2294.0</ele>
      </trkpt>
      <trkpt lat="44.92834" lon="6.40906">
        <time>1970-01-01T00:00:00+00:00</time>
        <ele>2294.0</ele>
      </trkpt>
      <trkpt lat="44.92851808786058" lon="6.409024382427884">
        <time>1970-01-01T00:00:00+00:00</time>
        <ele>2301.0</ele>
      </trkpt>
      <trkpt lat="44.928696175721164" lon="6.408988764855767">
        <time>1970-01-01T00:00:00+00:00</time>
        <ele>2311.0</ele>
      </trkpt>
      <trkpt lat="44.92874" lon="6.40898">
        <time>1970-01-01T00:00:00+00:00</time>
        <ele>2313.0</ele>
      </trkpt>
      <trkpt lat="44.92874" lon="6.40898">
        <time>1970-01-01T00:00:00+00:00</time>
        <ele>2313.0</ele>
      </trkpt>
      <trkpt lat="44.92891986432119" lon="6.40898">
        <time>1970-01-01T00:00:00+00:00</time>
        <ele>2317.0</ele>
      </trkpt>
      <trkpt lat="44.92909972864237" lon="6.40898">
        <time>1970-01-01T00:00:00+00:00</time>
        <ele>2319.0</ele>
      </trkpt>
      <trkpt lat="44.92922" lon="6.40898">
        <time>1970-01-01T00:00:00+00:00</time>
        <ele>2318.0</ele>
      </trkpt>
      <trkpt lat="44.92922" lon="6.40898">
        <time>1970-01-01T00:00:00+00:00</time>
        <ele>2318.0</ele>
      </trkpt>
      <trkpt lat="44.92939611253625" lon="6.409031619191661">
        <time>1970-01-01T00:00:00+00:00</time>
        <ele>2312.0</ele>
      </trkpt>
      <trkpt lat="44.929572225072505" lon="6.409083238383322">
        <time>1970-01-01T00:00:00+00:00</time>
        <ele>2304.0</ele>
      </trkpt>
      <trkpt lat="44.929748337608764" lon="6.4091348575749825">
        <time>1970-01-01T00:00:00+00:00</time>
        <ele>2296.0</ele>
      </trkpt>
      <trkpt lat="44.9298" lon="6.40915">
        <time>1970-01-01T00:00:00+00:00</time>
        <ele>2295.0</ele>
      </trkpt>
      <trkpt lat="44.9298" lon="6.40915">
        <time>1970-01-01T00:00:00+00:00</time>
        <ele>2295.0</ele>
      </trkpt>
      <trkpt lat="44.9299647747157" lon="6.40925186073334">
        <time>1970-01-01T00:00:00+00:00</time>
        <ele>2292.0</ele>
      </trkpt>
      <trkpt lat="44.9301295494314" lon="6.409353721466681">
        <time>1970-01-01T00:00:00+00:00</time>
        <ele>2289.0</ele>
      </trkpt>
      <trkpt lat="44.93029432414709" lon="6.409455582200023">
        <time>1970-01-01T00:00:00+00:00</time>
        <ele>2286.0</ele>
      </trkpt>
      <trkpt lat="44.93035" lon="6.40949">
        <time>1970-01-01T00:00:00+00:00</time>
        <ele>2286.0</ele>
      </trkpt>
      <trkpt lat="44.93035" lon="6.40949">
        <time>1970-01-01T00:00:00+00:00</time>
        <ele>2286.0</ele>
      </trkpt>
      <trkpt lat="44.930517731781514" lon="6.409581728318017">
        <time>1970-01-01T00:00:00+00:00</time>
        <ele>2283.0</ele>
      </trkpt>
      <trkpt lat="44.93068546356303" lon="6.409673456636032">
        <time>1970-01-01T00:00:00+00:00</time>
        <ele>2279.0</ele>
      </trkpt>
      <trkpt lat="44.93085319534454" lon="6.409765184954048">
        <time>1970-01-01T00:00:00+00:00</time>
        <ele>2274.0</ele>
      </trkpt>
      <trkpt lat="44.93099" lon="6.40984">
        <time>1970-01-01T00:00:00+00:00</time>
        <ele>2271.0</ele>
      </trkpt>
      <trkpt lat="44.93099" lon="6.40984">
        <time>1970-01-01T00:00:00+00:00</time>
        <ele>2271.0</ele>
      </trkpt>
      <trkpt lat="44.93116697905616" lon="6.409885323904627">
        <time>1970-01-01T00:00:00+00:00</time>
        <ele>2270.0</ele>
      </trkpt>
      <trkpt lat="44.93134395811232" lon="6.4099306478092535">
        <time>1970-01-01T00:00:00+00:00</time>
        <ele>2268.0</ele>
      </trkpt>
      <trkpt lat="44.931520937168486" lon="6.40997597171388">
        <time>1970-01-01T00:00:00+00:00</time>
        <ele>2267.0</ele>
      </trkpt>
      <trkpt lat="44.93169791622464" lon="6.410021295618507">
        <time>1970-01-01T00:00:00+00:00</time>
        <ele>2269.0</ele>
      </trkpt>
      <trkpt lat="44.93181" lon="6.41005">
        <time>1970-01-01T00:00:00+00:00</time>
        <ele>2273.0</ele>
      </trkpt>
      <trkpt lat="44.93181" lon="6.41005">
        <time>1970-01-01T00:00:00+00:00</time>
        <ele>2273.0</ele>
      </trkpt>
      <trkpt lat="44.93198986432118" lon="6.41005">
        <time>1970-01-01T00:00:00+00:00</time>
        <ele>2280.0</ele>
      </trkpt>
      <trkpt lat="44.932169728642364" lon="6.41005">
        <time>1970-01-01T00:00:00+00:00</time>
        <ele>2287.0</ele>
      </trkpt>
      <trkpt lat="44.93217" lon="6.41005">
        <time>1970-01-01T00:00:00+00:00</time>
        <ele>2287.0</ele>
      </trkpt>
      <trkpt lat="44.93217" lon="6.41005">
        <time>1970-01-01T00:00:00+00:00</time>
        <ele>2287.0</ele>
      </trkpt>
      <trkpt lat="44.93234983650693" lon="6.4100544679877505">
        <time>1970-01-01T00:00:00+00:00</time>
        <ele>2294.0</ele>
      </trkpt>
      <trkpt lat="44.93252967301386" lon="6.410058935975499">
        <time>1970-01-01T00:00:00+00:00</time>
        <ele>2299.0</ele>
      </trkpt>
      <trkpt lat="44.93270950952079" lon="6.41006340396325">
        <time>1970-01-01T00:00:00+00:00</time>
        <ele>2303.0</ele>
      </trkpt>
      <trkpt lat="44.93288934602772" lon="6.410067871950999">
        <time>1970-01-01T00:00:00+00:00</time>
        <ele>2307.0</ele>
      </trkpt>
      <trkpt lat="44.93306918253465" lon="6.41007233993875">
        <time>1970-01-01T00:00:00+00:00</time>
        <ele>2310.0</ele>
      </trkpt>
      <trkpt lat="44.93324901904158" lon="6.410076807926499">
        <time>1970-01-01T00:00:00+00:00</time>
        <ele>2310.0</ele>
      </trkpt>
      <trkpt lat="44.93342885554851" lon="6.410081275914249">
        <time>1970-01-01T00:00:00+00:00</time>
        <ele>2312.0</ele>
      </trkpt>
      <trkpt lat="44.93360869205544" lon="6.410085743901999">
        <time>1970-01-01T00:00:00+00:00</time>
        <ele>2319.0</ele>
      </trkpt>
      <trkpt lat="44.93378" lon="6.41009">
        <time>1970-01-01T00:00:00+00:00</time>
        <ele>2325.0</ele>
      </trkpt>
      <trkpt lat="44.93378" lon="6.41009">
        <time>1970-01-01T00:00:00+00:00</time>
        <ele>2325.0</ele>
      </trkpt>
      <trkpt lat="44.93395751116271" lon="6.41004903588553">
        <time>1970-01-01T00:00:00+00:00</time>
        <ele>2330.0</ele>
      </trkpt>
      <trkpt lat="44.93413502232542" lon="6.410008071771059">
        <time>1970-01-01T00:00:00+00:00</time>
        <ele>2335.0</ele>
      </trkpt>
      <trkpt lat="44.9343" lon="6.40997">
        <time>1970-01-01T00:00:00+00:00</time>
        <ele>2340.0</ele>
      </trkpt>
      <trkpt lat="44.9343" lon="6.40997">
        <time>1970-01-01T00:00:00+00:00</time>
        <ele>2340.0</ele>
      </trkpt>
      <trkpt lat="44.93446540406122" lon="6.409870187204432">
        <time>1970-01-01T00:00:00+00:00</time>
        <ele>2343.0</ele>
      </trkpt>
      <trkpt lat="44.93463080812245" lon="6.409770374408865">
        <time>1970-01-01T00:00:00+00:00</time>
        <ele>2346.0</ele>
      </trkpt>
      <trkpt lat="44.93479621218368" lon="6.409670561613298">
        <time>1970-01-01T00:00:00+00:00</time>
        <ele>2350.0</ele>
      </trkpt>
      <trkpt lat="44.93488" lon="6.40962">
        <time>1970-01-01T00:00:00+00:00</time>
        <ele>2352.0</ele>
      </trkpt>
      <trkpt lat="44.93488" lon="6.40962">
        <time>1970-01-01T00:00:00+00:00</time>
        <ele>2352.0</ele>
      </trkpt>
      <trkpt lat="44.93504693372876" lon="6.409525404220366">
        <time>1970-01-01T00:00:00+00:00</time>
        <ele>2355.0</ele>
      </trkpt>
      <trkpt lat="44.935213867457534" lon="6.4094308084407325">
        <time>1970-01-01T00:00:00+00:00</time>
        <ele>2358.0</ele>
      </trkpt>
      <trkpt lat="44.93538080118629" lon="6.409336212661099">
        <time>1970-01-01T00:00:00+00:00</time>
        <ele>2361.0</ele>
      </trkpt>
      <trkpt lat="44.93548" lon="6.40928">
        <time>1970-01-01T00:00:00+00:00</time>
        <ele>2362.0</ele>
      </trkpt>
      <trkpt lat="44.93548" lon="6.40928">
        <time>1970-01-01T00:00:00+00:00</time>
        <ele>2362.0</ele>
      </trkpt>
      <trkpt lat="44.93563135362333" lon="6.409142725783489">
        <time>1970-01-01T00:00:00+00:00</time>
        <ele>2364.0</ele>
      </trkpt>
      <trkpt lat="44.93578270724666" lon="6.40900545156698">
        <time>1970-01-01T00:00:00+00:00</time>
        <ele>2366.0</ele>
      </trkpt>
      <trkpt lat="44.93591" lon="6.40889">
        <time>1970-01-01T00:00:00+00:00</time>
        <ele>2368.0</ele>
      </trkpt>
      <trkpt lat="44.93591" lon="6.40889">
        <time>1970-01-01T00:00:00+00:00</time>
        <ele>2368.0</ele>
      </trkpt>
      <trkpt lat="44.93608901301987" lon="6.408865308548984">
        <time>1970-01-01T00:00:00+00:00</time>
        <ele>2372.0</ele>
      </trkpt>
      <trkpt lat="44.936268026039734" lon="6.408840617097968">
        <time>1970-01-01T00:00:00+00:00</time>
        <ele>2378.0</ele>
      </trkpt>
      <trkpt lat="44.936447039059594" lon="6.408815925646952">
        <time>1970-01-01T00:00:00+00:00</time>
        <ele>2383.0</ele>
      </trkpt>
      <trkpt lat="44.93649" lon="6.40881">
        <time>1970-01-01T00:00:00+00:00</time>
        <ele>2385.0</ele>
      </trkpt>
      <trkpt lat="44.93649" lon="6.40881">
        <time>1970-01-01T00:00:00+00:00</time>
        <ele>2385.0</ele>
      </trkpt>
      <trkpt lat="44.93666290673352" lon="6.408879986058803">
        <time>1970-01-01T00:00:00+00:00</time>
        <ele>2392.0</ele>
      </trkpt>
      <trkpt lat="44.93683581346703" lon="6.408949972117607">
        <time>1970-01-01T00:00:00+00:00</time>
        <ele>2401.0</ele>
      </trkpt>
      <trkpt lat="44.93691" lon="6.40898">
        <time>1970-01-01T00:00:00+00:00</time>
        <ele>2404.0</ele>
      </trkpt>
      <trkpt lat="44.93691" lon="6.40898">
        <time>1970-01-01T00:00:00+00:00</time>
        <ele>2404.0</ele>
      </trkpt>
      <trkpt lat="44.937066951373154" lon="6.409104101085749">
        <time>1970-01-01T00:00:00+00:00</time>
        <ele>2413.0</ele>
      </trkpt>
      <trkpt lat="44.937223902746304" lon="6.409228202171499">
        <time>1970-01-01T00:00:00+00:00</time>
        <ele>2422.0</ele>
      </trkpt>
      <trkpt lat="44.93734" lon="6.40932">
        <time>1970-01-01T00:00:00+00:00</time>
        <ele>2429.0</ele>
      </trkpt>
      <trkpt lat="44.93734" lon="6.40932">
        <time>1970-01-01T00:00:00+00:00</time>
        <ele>2429.0</ele>
      </trkpt>
      <trkpt lat="44.937460921043915" lon="6.409508099401649">
        <time>1970-01-01T00:00:00+00:00</time>
        <ele>2438.0</ele>
      </trkpt>
      <trkpt lat="44.93758184208784" lon="6.4096961988032986">
        <time>1970-01-01T00:00:00+00:00</time>
        <ele>2446.0</ele>
      </trkpt>
      <trkpt lat="44.9377" lon="6.40988">
        <time>1970-01-01T00:00:00+00:00</time>
        <ele>2454.0</ele>
      </trkpt>
      <trkpt lat="44.9377" lon="6.40988">
        <time>1970-01-01T00:00:00+00:00</time>
        <ele>2454.0</ele>
      </trkpt>
      <trkpt lat="44.93780772401298" lon="6.410083478691179">
        <time>1970-01-01T00:00:00+00:00</time>
        <ele>2466.0</ele>
      </trkpt>
      <trkpt lat="44.937915448025954" lon="6.4102869573823575">
        <time>1970-01-01T00:00:00+00:00</time>
        <ele>2482.0</ele>
      </trkpt>
      <trkpt lat="44.93797" lon="6.41039">
        <time>1970-01-01T00:00:00+00:00</time>
        <ele>2493.0</ele>
      </trkpt>
      <trkpt lat="44.93797" lon="6.41039">
        <time>1970-01-01T00:00:00+00:00</time>
        <ele>2493.0</ele>
      </trkpt>
      <trkpt lat="44.93811415860698" lon="6.410541950964107">
        <time>1970-01-01T00:00:00+00:00</time>
        <ele>2511.0</ele>
      </trkpt>
      <trkpt lat="44.93825831721395" lon="6.410693901928214">
        <time>1970-01-01T00:00:00+00:00</time>
        <ele>2526.0</ele>
      </trkpt>
      <trkpt lat="44.93834" lon="6.41078">
        <time>1970-01-01T00:00:00+00:00</time>
        <ele>2534.0</ele>
      </trkpt>
      <trkpt lat="44.93834" lon="6.41078">
        <time>1970-01-01T00:00:00+00:00</time>
        <ele>2534.0</ele>
      </trkpt>
      <trkpt lat="44.93850864468759" lon="6.410868337693498">
        <time>1970-01-01T00:00:00+00:00</time>
        <ele>2548.0</ele>
      </trkpt>
      <trkpt lat="44.93867728937518" lon="6.410956675386996">
        <time>1970-01-01T00:00:00+00:00</time>
        <ele>2559.0</ele>
      </trkpt>
      <trkpt lat="44.93876" lon="6.411">
        <time>1970-01-01T00:00:00+00:00</time>
        <ele>2564.0</ele>
      </trkpt>
      <trkpt lat="44.93876" lon="6.411">
        <time>1970-01-01T00:00:00+00:00</time>
        <ele>2564.0</ele>
      </trkpt>
      <trkpt lat="44.93893909424794" lon="6.411023487770222">
        <time>1970-01-01T00:00:00+00:00</time>
        <ele>2575.0</ele>
      </trkpt>
      <trkpt lat="44.939118188495875" lon="6.411046975540443">
        <time>1970-01-01T00:00:00+00:00</time>
        <ele>2586.0</ele>
      </trkpt>
      <trkpt lat="44.939297282743816" lon="6.411070463310665">
        <time>1970-01-01T00:00:00+00:00</time>
        <ele>2595.0</ele>
      </trkpt>
      <trkpt lat="44.93937" lon="6.41108">
        <time>1970-01-01T00:00:00+00:00</time>
        <ele>2599.0</ele>
      </trkpt>
      <trkpt lat="44.93937" lon="6.41108">
        <time>1970-01-01T00:00:00+00:00</time>
        <ele>2599.0</ele>
      </trkpt>
      <trkpt lat="44.9395459410595" lon="6.4110272176821494">
        <time>1970-01-01T00:00:00+00:00</time>
        <ele>2611.0</ele>
      </trkpt>
      <trkpt lat="44.939721882119" lon="6.410974435364299">
        <time>1970-01-01T00:00:00+00:00</time>
        <ele>2621.0</ele>
      </trkpt>
      <trkpt lat="44.93989782317851" lon="6.410921653046447">
        <time>1970-01-01T00:00:00+00:00</time>
        <ele>2628.0</ele>
      </trkpt>
      <trkpt lat="44.94007" lon="6.41087">
        <time>1970-01-01T00:00:00+00:00</time>
        <ele>2636.0</ele>
      </trkpt>
      <trkpt lat="44.94007" lon="6.41087">
        <time>1970-01-01T00:00:00+00:00</time>
        <ele>2636.0</ele>
      </trkpt>
      <trkpt lat="44.94024620343605" lon="6.410818993742198">
        <time>1970-01-01T00:00:00+00:00</time>
        <ele>2644.0</ele>
      </trkpt>
      <trkpt lat="44.94042240687209" lon="6.410767987484396">
        <time>1970-01-01T00:00:00+00:00</time>
        <ele>2651.0</ele>
      </trkpt>
      <trkpt lat="44.94059861030813" lon="6.410716981226594">
        <time>1970-01-01T00:00:00+00:00</time>
        <ele>2659.0</ele>
      </trkpt>
      <trkpt lat="44.94077481374418" lon="6.410665974968792">
        <time>1970-01-01T00:00:00+00:00</time>
        <ele>2669.0</ele>
      </trkpt>
      <trkpt lat="44.94083" lon="6.41065">
        <time>1970-01-01T00:00:00+00:00</time>
        <ele>2671.0</ele>
      </trkpt>
      <trkpt lat="44.94083" lon="6.41065">
        <time>1970-01-01T00:00:00+00:00</time>
        <ele>2671.0</ele>
      </trkpt>
      <trkpt lat="44.940977750599316" lon="6.410505090758359">
        <time>1970-01-01T00:00:00+00:00</time>
        <ele>2681.0</ele>
      </trkpt>
      <trkpt lat="44.94112550119864" lon="6.410360181516717">
        <time>1970-01-01T00:00:00+00:00</time>
        <ele>2687.0</ele>
      </trkpt>
      <trkpt lat="44.941273251797966" lon="6.410215272275076">
        <time>1970-01-01T00:00:00+00:00</time>
        <ele>2695.0</ele>
      </trkpt>
      <trkpt lat="44.94135" lon="6.41014">
        <time>1970-01-01T00:00:00+00:00</time>
        <ele>2698.0</ele>
      </trkpt>
      <trkpt lat="44.94135" lon="6.41014">
        <time>1970-01-01T00:00:00+00:00</time>
        <ele>2698.0</ele>
      </trkpt>
      <trkpt lat="44.941505918124825" lon="6.410013316523583">
        <time>1970-01-01T00:00:00+00:00</time>
        <ele>2704.0</ele>
      </trkpt>
      <trkpt lat="44.94166183624965" lon="6.409886633047164">
        <time>1970-01-01T00:00:00+00:00</time>
        <ele>2707.0</ele>
      </trkpt>
      <trkpt lat="44.94181775437447" lon="6.409759949570746">
        <time>1970-01-01T00:00:00+00:00</time>
        <ele>2711.0</ele>
      </trkpt>
      <trkpt lat="44.94183" lon="6.40975">
        <time>1970-01-01T00:00:00+00:00</time>
        <ele>2712.0</ele>
      </trkpt>
      <trkpt lat="44.94183" lon="6.40975">
        <time>1970-01-01T00:00:00+00:00</time>
        <ele>2712.0</ele>
      </trkpt>
      <trkpt lat="44.94197729936866" lon="6.409604173625025">
        <time>1970-01-01T00:00:00+00:00</time>
        <ele>2715.0</ele>
      </trkpt>
      <trkpt lat="44.94212459873732" lon="6.409458347250051">
        <time>1970-01-01T00:00:00+00:00</time>
        <ele>2717.0</ele>
      </trkpt>
      <trkpt lat="44.942271898105986" lon="6.409312520875076">
        <time>1970-01-01T00:00:00+00:00</time>
        <ele>2719.0</ele>
      </trkpt>
      <trkpt lat="44.94241919747465" lon="6.409166694500102">
        <time>1970-01-01T00:00:00+00:00</time>
        <ele>2721.0</ele>
      </trkpt>
      <trkpt lat="44.94256649684331" lon="6.409020868125127">
        <time>1970-01-01T00:00:00+00:00</time>
        <ele>2727.0</ele>
      </trkpt>
      <trkpt lat="44.94271379621197" lon="6.408875041750154">
        <time>1970-01-01T00:00:00+00:00</time>
        <ele>2732.0</ele>
      </trkpt>
      <trkpt lat="44.94283" lon="6.40876">
        <time>1970-01-01T00:00:00+00:00</time>
        <ele>2737.0</ele>
      </trkpt>
      <trkpt lat="44.94283" lon="6.40876">
        <time>1970-01-01T00:00:00+00:00</time>
        <ele>2737.0</ele>
      </trkpt>
      <trkpt lat="44.94297236336017" lon="6.408604694516171">
        <time>1970-01-01T00:00:00+00:00</time>
        <ele>2744.0</ele>
      </trkpt>
      <trkpt lat="44.94311472672035" lon="6.408449389032343">
        <time>1970-01-01T00:00:00+00:00</time>
        <ele>2752.0</ele>
      </trkpt>
      <trkpt lat="44.94325709008053" lon="6.408294083548515">
        <time>1970-01-01T00:00:00+00:00</time>
        <ele>2759.0</ele>
      </trkpt>
      <trkpt lat="44.94338" lon="6.40816">
        <time>1970-01-01T00:00:00+00:00</time>
        <ele>2762.0</ele>
      </trkpt>
      <trkpt lat="44.94338" lon="6.40816">
        <time>1970-01-01T00:00:00+00:00</time>
        <ele>2762.0</ele>
      </trkpt>
      <trkpt lat="44.943488441032684" lon="6.407957262417161">
        <time>1970-01-01T00:00:00+00:00</time>
        <ele>2763.0</ele>
      </trkpt>
      <trkpt lat="44.943596882065364" lon="6.40775452483432">
        <time>1970-01-01T00:00:00+00:00</time>
        <ele>2765.0</ele>
      </trkpt>
      <trkpt lat="44.943705323098044" lon="6.40755178725148">
        <time>1970-01-01T00:00:00+00:00</time>
        <ele>2770.0</ele>
      </trkpt>
      <trkpt lat="44.94381376413073" lon="6.40734904966864">
        <time>1970-01-01T00:00:00+00:00</time>
        <ele>2775.0</ele>
      </trkpt>
      <trkpt lat="44.94384" lon="6.4073">
        <time>1970-01-01T00:00:00+00:00</time>
        <ele>2776.0</ele>
      </trkpt>
      <trkpt lat="44.94384" lon="6.4073">
        <time>1970-01-01T00:00:00+00:00</time>
        <ele>2776.0</ele>
      </trkpt>
      <trkpt lat="44.94395630565188" lon="6.407106157246869">
        <time>1970-01-01T00:00:00+00:00</time>
        <ele>2781.0</ele>
      </trkpt>
      <trkpt lat="44.94407261130376" lon="6.406912314493737">
        <time>1970-01-01T00:00:00+00:00</time>
        <ele>2787.0</ele>
      </trkpt>
      <trkpt lat="44.94418891695564" lon="6.4067184717406045">
        <time>1970-01-01T00:00:00+00:00</time>
        <ele>2793.0</ele>
      </trkpt>
      <trkpt lat="44.94430522260751" lon="6.406524628987473">
        <time>1970-01-01T00:00:00+00:00</time>
        <ele>2799.0</ele>
      </trkpt>
      <trkpt lat="44.94435" lon="6.40645">
        <time>1970-01-01T00:00:00+00:00</time>
        <ele>2802.0</ele>
      </trkpt>
      <trkpt lat="44.94435" lon="6.40645">
        <time>1970-01-01T00:00:00+00:00</time>
        <ele>2802.0</ele>
      </trkpt>
      <trkpt lat="44.944450103495704" lon="6.40623887262724">
        <time>1970-01-01T00:00:00+00:00</time>
        <ele>2809.0</ele>
      </trkpt>
      <trkpt lat="44.94455020699141" lon="6.40602774525448">
        <time>1970-01-01T00:00:00+00:00</time>
        <ele>2816.0</ele>
      </trkpt>
      <trkpt lat="44.94465031048711" lon="6.405816617881721">
        <time>1970-01-01T00:00:00+00:00</time>
        <ele>2822.0</ele>
      </trkpt>
      <trkpt lat="44.94475041398282" lon="6.405605490508961">
        <time>1970-01-01T00:00:00+00:00</time>
        <ele>2826.0</ele>
      </trkpt>
      <trkpt lat="44.94485051747852" lon="6.405394363136201">
        <time>1970-01-01T00:00:00+00:00</time>
        <ele>2827.0</ele>
      </trkpt>
      <trkpt lat="44.9449" lon="6.40529">
        <time>1970-01-01T00:00:00+00:00</time>
        <ele>2825.0</ele>
      </trkpt>
      <trkpt lat="44.9449" lon="6.40529">
        <time>1970-01-01T00:00:00+00:00</time>
        <ele>2825.0</ele>
      </trkpt>
      <trkpt lat="44.945023323363465" lon="6.405105014954804">
        <time>1970-01-01T00:00:00+00:00</time>
        <ele>2826.0</ele>
      </trkpt>
      <trkpt lat="44.945146646726926" lon="6.40492002990961">
        <time>1970-01-01T00:00:00+00:00</time>
        <ele>2827.0</ele>
      </trkpt>
      <trkpt lat="44.94526997009039" lon="6.404735044864414">
        <time>1970-01-01T00:00:00+00:00</time>
        <ele>2828.0</ele>
      </trkpt>
      <trkpt lat="44.9453" lon="6.40469">
        <time>1970-01-01T00:00:00+00:00</time>
        <ele>2828.0</ele>
      </trkpt>
      <trkpt lat="44.9453" lon="6.40469">
        <time>1970-01-01T00:00:00+00:00</time>
        <ele>2828.0</ele>
      </trkpt>
      <trkpt lat="44.94537019239322" lon="6.404456025355937">
        <time>1970-01-01T00:00:00+00:00</time>
        <ele>2826.0</ele>
      </trkpt>
      <trkpt lat="44.94544038478644" lon="6.404222050711872">
        <time>1970-01-01T00:00:00+00:00</time>
        <ele>2827.0</ele>
      </trkpt>
      <trkpt lat="44.945510577179654" lon="6.403988076067807">
        <time>1970-01-01T00:00:00+00:00</time>
        <ele>2831.0</ele>
      </trkpt>
      <trkpt lat="44.94557" lon="6.40379">
        <time>1970-01-01T00:00:00+00:00</time>
        <ele>2834.0</ele>
      </trkpt>
      <trkpt lat="44.94557" lon="6.40379">
        <time>1970-01-01T00:00:00+00:00</time>
        <ele>2834.0</ele>
      </trkpt>
      <trkpt lat="44.9456721504756" lon="6.403580834740441">
        <time>1970-01-01T00:00:00+00:00</time>
        <ele>2837.0</ele>
      </trkpt>
      <trkpt lat="44.9457743009512" lon="6.403371669480881">
        <time>1970-01-01T00:00:00+00:00</time>
        <ele>2840.0</ele>
      </trkpt>
      <trkpt lat="44.9458764514268" lon="6.403162504221322">
        <time>1970-01-01T00:00:00+00:00</time>
        <ele>2843.0</ele>
      </trkpt>
      <trkpt lat="44.9459786019024" lon="6.402953338961763">
        <time>1970-01-01T00:00:00+00:00</time>
        <ele>2846.0</ele>
      </trkpt>
      <trkpt lat="44.94599" lon="6.40293">
        <time>1970-01-01T00:00:00+00:00</time>
        <ele>2846.0</ele>
      </trkpt>
      <trkpt lat="44.94599" lon="6.40293">
        <time>1970-01-01T00:00:00+00:00</time>
        <ele>2846.0</ele>
      </trkpt>
      <trkpt lat="44.94607569839181" lon="6.4027065720499445">
        <time>1970-01-01T00:00:00+00:00</time>
        <ele>2848.0</ele>
      </trkpt>
      <trkpt lat="44.9461613967836" lon="6.402483144099889">
        <time>1970-01-01T00:00:00+00:00</time>
        <ele>2850.0</ele>
      </trkpt>
      <trkpt lat="44.94624709517541" lon="6.402259716149833">
        <time>1970-01-01T00:00:00+00:00</time>
        <ele>2852.0</ele>
      </trkpt>
      <trkpt lat="44.94627" lon="6.4022">
        <time>1970-01-01T00:00:00+00:00</time>
        <ele>2853.0</ele>
      </trkpt>
      <trkpt lat="44.94627" lon="6.4022">
        <time>1970-01-01T00:00:00+00:00</time>
        <ele>2853.0</ele>
      </trkpt>
      <trkpt lat="44.94635273702721" lon="6.401974353562136">
        <time>1970-01-01T00:00:00+00:00</time>
        <ele>2854.0</ele>
      </trkpt>
      <trkpt lat="44.946435474054425" lon="6.4017487071242725">
        <time>1970-01-01T00:00:00+00:00</time>
        <ele>2855.0</ele>
      </trkpt>
      <trkpt lat="44.946518211081646" lon="6.40152306068641">
        <time>1970-01-01T00:00:00+00:00</time>
        <ele>2858.0</ele>
      </trkpt>
      <trkpt lat="44.9466" lon="6.4013">
        <time>1970-01-01T00:00:00+00:00</time>
        <ele>2862.0</ele>
      </trkpt>
      <trkpt lat="44.9466" lon="6.4013">
        <time>1970-01-01T00:00:00+00:00</time>
        <ele>2862.0</ele>
      </trkpt>
      <trkpt lat="44.94667602559825" lon="6.401069687158248">
        <time>1970-01-01T00:00:00+00:00</time>
        <ele>2868.0</ele>
      </trkpt>
      <trkpt lat="44.9467520511965" lon="6.4008393743164955">
        <time>1970-01-01T00:00:00+00:00</time>
        <ele>2872.0</ele>
      </trkpt>
      <trkpt lat="44.946828076794745" lon="6.400609061474742">
        <time>1970-01-01T00:00:00+00:00</time>
        <ele>2877.0</ele>
      </trkpt>
      <trkpt lat="44.94690410239299" lon="6.400378748632989">
        <time>1970-01-01T00:00:00+00:00</time>
        <ele>2884.0</ele>
      </trkpt>
      <trkpt lat="44.94694" lon="6.40027">
        <time>1970-01-01T00:00:00+00:00</time>
        <ele>2886.0</ele>
      </trkpt>
      <trkpt lat="44.94694" lon="6.40027">
        <time>1970-01-01T00:00:00+00:00</time>
        <ele>2886.0</ele>
      </trkpt>
      <trkpt lat="44.94698792403252" lon="6.400025054944867">
        <time>1970-01-01T00:00:00+00:00</time>
        <ele>2889.0</ele>
      </trkpt>
      <trkpt lat="44.94703584806505" lon="6.3997801098897344">
        <time>1970-01-01T00:00:00+00:00</time>
        <ele>2892.0</ele>
      </trkpt>
      <trkpt lat="44.94708377209757" lon="6.399535164834603">
        <time>1970-01-01T00:00:00+00:00</time>
        <ele>2896.0</ele>
      </trkpt>
      <trkpt lat="44.9471316961301" lon="6.39929021977947">
        <time>1970-01-01T00:00:00+00:00</time>
        <ele>2899.0</ele>
      </trkpt>
      <trkpt lat="44.94717962016263" lon="6.399045274724338">
        <time>1970-01-01T00:00:00+00:00</time>
        <ele>2902.0</ele>
      </trkpt>
      <trkpt lat="44.94721" lon="6.39889">
        <time>1970-01-01T00:00:00+00:00</time>
        <ele>2905.0</ele>
      </trkpt>
      <trkpt lat="44.94721" lon="6.39889">
        <time>1970-01-01T00:00:00+00:00</time>
        <ele>2905.0</ele>
      </trkpt>
      <trkpt lat="44.94724086662529" lon="6.398639637372569">
        <time>1970-01-01T00:00:00+00:00</time>
        <ele>2911.0</ele>
      </trkpt>
      <trkpt lat="44.947271733250595" lon="6.3983892747451385">
        <time>1970-01-01T00:00:00+00:00</time>
        <ele>2918.0</ele>
      </trkpt>
      <trkpt lat="44.9473" lon="6.39816">
        <time>1970-01-01T00:00:00+00:00</time>
        <ele>2924.0</ele>
      </trkpt>
      <trkpt lat="44.9473" lon="6.39816">
        <time>1970-01-01T00:00:00+00:00</time>
        <ele>2924.0</ele>
      </trkpt>
      <trkpt lat="44.94733956013012" lon="6.397912089851224">
        <time>1970-01-01T00:00:00+00:00</time>
        <ele>2929.0</ele>
      </trkpt>
      <trkpt lat="44.94737912026025" lon="6.397664179702449">
        <time>1970-01-01T00:00:00+00:00</time>
        <ele>2934.0</ele>
      </trkpt>
      <trkpt lat="44.94741868039037" lon="6.397416269553673">
        <time>1970-01-01T00:00:00+00:00</time>
        <ele>2941.0</ele>
      </trkpt>
      <trkpt lat="44.94745" lon="6.39722">
        <time>1970-01-01T00:00:00+00:00</time>
        <ele>2947.0</ele>
      </trkpt>
      <trkpt lat="44.94745" lon="6.39722">
        <time>1970-01-01T00:00:00+00:00</time>
        <ele>2947.0</ele>
      </trkpt>
      <trkpt lat="44.947487291766066" lon="6.396971388226211">
        <time>1970-01-01T00:00:00+00:00</time>
        <ele>2954.0</ele>
      </trkpt>
      <trkpt lat="44.947524583532136" lon="6.396722776452423">
        <time>1970-01-01T00:00:00+00:00</time>
        <ele>2958.0</ele>
      </trkpt>
      <trkpt lat="44.947561875298206" lon="6.396474164678634">
        <time>1970-01-01T00:00:00+00:00</time>
        <ele>2964.0</ele>
      </trkpt>
      <trkpt lat="44.94759916706427" lon="6.396225552904845">
        <time>1970-01-01T00:00:00+00:00</time>
        <ele>2967.0</ele>
      </trkpt>
      <trkpt lat="44.94763" lon="6.39602">
        <time>1970-01-01T00:00:00+00:00</time>
        <ele>2969.0</ele>
      </trkpt>
      <trkpt lat="44.94763" lon="6.39602">
        <time>1970-01-01T00:00:00+00:00</time>
        <ele>2969.0</ele>
      </trkpt>
      <trkpt lat="44.94767776896219" lon="6.395774991451996">
        <time>1970-01-01T00:00:00+00:00</time>
        <ele>2972.0</ele>
      </trkpt>
      <trkpt lat="44.94772553792438" lon="6.395529982903994">
        <time>1970-01-01T00:00:00+00:00</time>
        <ele>2974.0</ele>
      </trkpt>
      <trkpt lat="44.94777330688657" lon="6.39528497435599">
        <time>1970-01-01T00:00:00+00:00</time>
        <ele>2977.0</ele>
      </trkpt>
      <trkpt lat="44.94782107584876" lon="6.395039965807987">
        <time>1970-01-01T00:00:00+00:00</time>
        <ele>2979.0</ele>
      </trkpt>
      <trkpt lat="44.94786884481095" lon="6.394794957259984">
        <time>1970-01-01T00:00:00+00:00</time>
        <ele>2981.0</ele>
      </trkpt>
      <trkpt lat="44.94791661377314" lon="6.394549948711981">
        <time>1970-01-01T00:00:00+00:00</time>
        <ele>2982.0</ele>
      </trkpt>
      <trkpt lat="44.94794" lon="6.39443">
        <time>1970-01-01T00:00:00+00:00</time>
        <ele>2982.0</ele>
      </trkpt>
      <trkpt lat="44.94794" lon="6.39443">
        <time>1970-01-01T00:00:00+00:00</time>
        <ele>2982.0</ele>
      </trkpt>
      <trkpt lat="44.9479526752032" lon="6.394176495936108">
        <time>1970-01-01T00:00:00+00:00</time>
        <ele>2984.0</ele>
      </trkpt>
      <trkpt lat="44.94796535040639" lon="6.393922991872216">
        <time>1970-01-01T00:00:00+00:00</time>
        <ele>2985.0</ele>
      </trkpt>
      <trkpt lat="44.947978025609586" lon="6.3936694878083244">
        <time>1970-01-01T00:00:00+00:00</time>
        <ele>2987.0</ele>
      </trkpt>
      <trkpt lat="44.94799070081278" lon="6.393415983744433">
        <time>1970-01-01T00:00:00+00:00</time>
        <ele>2989.0</ele>
      </trkpt>
      <trkpt lat="44.948" lon="6.39323">
        <time>1970-01-01T00:00:00+00:00</time>
        <ele>2990.0</ele>
      </trkpt>
      <trkpt lat="44.948" lon="6.39323">
        <time>1970-01-01T00:00:00+00:00</time>
        <ele>2990.0</ele>
      </trkpt>
      <trkpt lat="44.94800000000001" lon="6.392975863979435">
        <time>1970-01-01T00:00:00+00:00</time>
        <ele>2992.0</ele>
      </trkpt>
      <trkpt lat="44.948" lon="6.39272172795887">
        <time>1970-01-01T00:00:00+00:00</time>
        <ele>2995.0</ele>
      </trkpt>
      <trkpt lat="44.948" lon="6.39267">
        <time>1970-01-01T00:00:00+00:00</time>
        <ele>2996.0</ele>
      </trkpt>
      <trkpt lat="44.948" lon="6.39267">
        <time>1970-01-01T00:00:00+00:00</time>
        <ele>2996.0</ele>
      </trkpt>
      <trkpt lat="44.948" lon="6.392415863979433">
        <time>1970-01-01T00:00:00+00:00</time>
        <ele>2999.0</ele>
      </trkpt>
      <trkpt lat="44.948" lon="6.392161727958866">
        <time>1970-01-01T00:00:00+00:00</time>
        <ele>3003.0</ele>
      </trkpt>
      <trkpt lat="44.948" lon="6.391907591938299">
        <time>1970-01-01T00:00:00+00:00</time>
        <ele>3006.0</ele>
      </trkpt>
      <trkpt lat="44.94800000000001" lon="6.391653455917732">
        <time>1970-01-01T00:00:00+00:00</time>
        <ele>3009.0</ele>
      </trkpt>
      <trkpt lat="44.948" lon="6.39155">
        <time>1970-01-01T00:00:00+00:00</time>
        <ele>3011.0</ele>
      </trkpt>
      <trkpt lat="44.948" lon="6.39155">
        <time>1970-01-01T00:00:00+00:00</time>
        <ele>3011.0</ele>
      </trkpt>
      <trkpt lat="44.94797896731937" lon="6.391297607832518">
        <time>1970-01-01T00:00:00+00:00</time>
        <ele>3014.0</ele>
      </trkpt>
      <trkpt lat="44.94795793463876" lon="6.391045215665036">
        <time>1970-01-01T00:00:00+00:00</time>
        <ele>3016.0</ele>
      </trkpt>
      <trkpt lat="44.94793690195813" lon="6.390792823497554">
        <time>1970-01-01T00:00:00+00:00</time>
        <ele>3019.0</ele>
      </trkpt>
      <trkpt lat="44.94791586927751" lon="6.390540431330073">
        <time>1970-01-01T00:00:00+00:00</time>
        <ele>3021.0</ele>
      </trkpt>
      <trkpt lat="44.94789483659689" lon="6.390288039162591">
        <time>1970-01-01T00:00:00+00:00</time>
        <ele>3023.0</ele>
      </trkpt>
      <trkpt lat="44.94787380391626" lon="6.390035646995108">
        <time>1970-01-01T00:00:00+00:00</time>
        <ele>3024.0</ele>
      </trkpt>
      <trkpt lat="44.94785277123564" lon="6.389783254827627">
        <time>1970-01-01T00:00:00+00:00</time>
        <ele>3027.0</ele>
      </trkpt>
      <trkpt lat="44.94785" lon="6.38975">
        <time>1970-01-01T00:00:00+00:00</time>
        <ele>3027.0</ele>
      </trkpt>
      <trkpt lat="44.94785" lon="6.38975">
        <time>1970-01-01T00:00:00+00:00</time>
        <ele>3027.0</ele>
      </trkpt>
      <trkpt lat="44.947790786952496" lon="6.389510031333795">
        <time>1970-01-01T00:00:00+00:00</time>
        <ele>3028.0</ele>
      </trkpt>
      <trkpt lat="44.94773157390499" lon="6.38927006266759">
        <time>1970-01-01T00:00:00+00:00</time>
        <ele>3028.0</ele>
      </trkpt>
      <trkpt lat="44.94767236085748" lon="6.3890300940013836">
        <time>1970-01-01T00:00:00+00:00</time>
        <ele>3029.0</ele>
      </trkpt>
      <trkpt lat="44.94766" lon="6.38898">
        <time>1970-01-01T00:00:00+00:00</time>
        <ele>3030.0</ele>
      </trkpt>
      <trkpt lat="44.94766" lon="6.38898">
        <time>1970-01-01T00:00:00+00:00</time>
        <ele>3030.0</ele>
      </trkpt>
      <trkpt lat="44.947608362132186" lon="6.388736564337437">
        <time>1970-01-01T00:00:00+00:00</time>
        <ele>3031.0</ele>
      </trkpt>
      <trkpt lat="44.947556724264366" lon="6.388493128674873">
        <time>1970-01-01T00:00:00+00:00</time>
        <ele>3031.0</ele>
      </trkpt>
      <trkpt lat="44.94750508639655" lon="6.388249693012309">
        <time>1970-01-01T00:00:00+00:00</time>
        <ele>3032.0</ele>
      </trkpt>
      <trkpt lat="44.947453448528734" lon="6.388006257349746">
        <time>1970-01-01T00:00:00+00:00</time>
        <ele>3032.0</ele>
      </trkpt>
      <trkpt lat="44.94745" lon="6.38799">
        <time>1970-01-01T00:00:00+00:00</time>
        <ele>3032.0</ele>
      </trkpt>
      <trkpt lat="44.94745" lon="6.38799">
        <time>1970-01-01T00:00:00+00:00</time>
        <ele>3032.0</ele>
      </trkpt>
      <trkpt lat="44.947391879458" lon="6.387749501205523">
        <time>1970-01-01T00:00:00+00:00</time>
        <ele>3033.0</ele>
      </trkpt>
      <trkpt lat="44.947333758916" lon="6.387509002411045">
        <time>1970-01-01T00:00:00+00:00</time>
        <ele>3034.0</ele>
      </trkpt>
      <trkpt lat="44.947275638374" lon="6.387268503616567">
        <time>1970-01-01T00:00:00+00:00</time>
        <ele>3035.0</ele>
      </trkpt>
      <trkpt lat="44.947217517832" lon="6.38702800482209">
        <time>1970-01-01T00:00:00+00:00</time>
        <ele>3038.0</ele>
      </trkpt>
      <trkpt lat="44.94715939729001" lon="6.386787506027613">
        <time>1970-01-01T00:00:00+00:00</time>
        <ele>3039.0</ele>
      </trkpt>
      <trkpt lat="44.94710127674801" lon="6.386547007233135">
        <time>1970-01-01T00:00:00+00:00</time>
        <ele>3040.0</ele>
      </trkpt>
      <trkpt lat="44.94704315620601" lon="6.386306508438657">
        <time>1970-01-01T00:00:00+00:00</time>
        <ele>3042.0</ele>
      </trkpt>
      <trkpt lat="44.94698503566401" lon="6.386066009644179">
        <time>1970-01-01T00:00:00+00:00</time>
        <ele>3043.0</ele>
      </trkpt>
      <trkpt lat="44.946926915122006" lon="6.385825510849702">
        <time>1970-01-01T00:00:00+00:00</time>
        <ele>3047.0</ele>
      </trkpt>
      <trkpt lat="44.94687" lon="6.38559">
        <time>1970-01-01T00:00:00+00:00</time>
        <ele>3050.0</ele>
      </trkpt>
      <trkpt lat="44.94687" lon="6.38559">
        <time>1970-01-01T00:00:00+00:00</time>
        <ele>3050.0</ele>
      </trkpt>
      <trkpt lat="44.946785154561866" lon="6.385365921022357">
        <time>1970-01-01T00:00:00+00:00</time>
        <ele>3050.0</ele>
      </trkpt>
      <trkpt lat="44.94670030912373" lon="6.385141842044715">
        <time>1970-01-01T00:00:00+00:00</time>
        <ele>3051.0</ele>
      </trkpt>
      <trkpt lat="44.94661546368559" lon="6.384917763067072">
        <time>1970-01-01T00:00:00+00:00</time>
        <ele>3052.0</ele>
      </trkpt>
      <trkpt lat="44.94653061824746" lon="6.38469368408943">
        <time>1970-01-01T00:00:00+00:00</time>
        <ele>3054.0</ele>
      </trkpt>
      <trkpt lat="44.94648" lon="6.38456">
        <time>1970-01-01T00:00:00+00:00</time>
        <ele>3055.0</ele>
      </trkpt>
      <trkpt lat="44.94648" lon="6.38456">
        <time>1970-01-01T00:00:00+00:00</time>
        <ele>3055.0</ele>
      </trkpt>
      <trkpt lat="44.946384854929505" lon="6.384344337840211">
        <time>1970-01-01T00:00:00+00:00</time>
        <ele>3056.0</ele>
      </trkpt>
      <trkpt lat="44.94633" lon="6.38422">
        <time>1970-01-01T00:00:00+00:00</time>
        <ele>3057.0</ele>
      </trkpt>
      <trkpt lat="44.94633" lon="6.38422">
        <time>1970-01-01T00:00:00+00:00</time>
        <ele>3057.0</ele>
      </trkpt>
      <trkpt lat="44.94627133855835" lon="6.383979767429437">
        <time>1970-01-01T00:00:00+00:00</time>
        <ele>3059.0</ele>
      </trkpt>
      <trkpt lat="44.946212677116705" lon="6.383739534858876">
        <time>1970-01-01T00:00:00+00:00</time>
        <ele>3060.0</ele>
      </trkpt>
      <trkpt lat="44.94615401567505" lon="6.383499302288313">
        <time>1970-01-01T00:00:00+00:00</time>
        <ele>3061.0</ele>
      </trkpt>
      <trkpt lat="44.94612" lon="6.38336">
        <time>1970-01-01T00:00:00+00:00</time>
        <ele>3062.0</ele>
      </trkpt>
      <trkpt lat="44.94612" lon="6.38336">
        <time>1970-01-01T00:00:00+00:00</time>
        <ele>3062.0</ele>
      </trkpt>
      <trkpt lat="44.94603601335963" lon="6.383135278989297">
        <time>1970-01-01T00:00:00+00:00</time>
        <ele>3063.0</ele>
      </trkpt>
      <trkpt lat="44.94595202671927" lon="6.382910557978592">
        <time>1970-01-01T00:00:00+00:00</time>
        <ele>3064.0</ele>
      </trkpt>
      <trkpt lat="44.945868040078906" lon="6.382685836967887">
        <time>1970-01-01T00:00:00+00:00</time>
        <ele>3065.0</ele>
      </trkpt>
      <trkpt lat="44.94578405343854" lon="6.3824611159571845">
        <time>1970-01-01T00:00:00+00:00</time>
        <ele>3067.0</ele>
      </trkpt>
      <trkpt lat="44.94575" lon="6.38237">
        <time>1970-01-01T00:00:00+00:00</time>
        <ele>3067.0</ele>
      </trkpt>
      <trkpt lat="44.94575" lon="6.38237">
        <time>1970-01-01T00:00:00+00:00</time>
        <ele>3067.0</ele>
      </trkpt>
      <trkpt lat="44.94566579208101" lon="6.382145445549352">
        <time>1970-01-01T00:00:00+00:00</time>
        <ele>3070.0</ele>
      </trkpt>
      <trkpt lat="44.945581584162014" lon="6.381920891098703">
        <time>1970-01-01T00:00:00+00:00</time>
        <ele>3072.0</ele>
      </trkpt>
      <trkpt lat="44.94551" lon="6.38173">
        <time>1970-01-01T00:00:00+00:00</time>
        <ele>3075.0</ele>
      </trkpt>
      <trkpt lat="44.94551" lon="6.38173">
        <time>1970-01-01T00:00:00+00:00</time>
        <ele>3075.0</ele>
      </trkpt>
      <trkpt lat="44.94542082988056" lon="6.381509303954391">
        <time>1970-01-01T00:00:00+00:00</time>
        <ele>3077.0</ele>
      </trkpt>
      <trkpt lat="44.94533165976112" lon="6.381288607908782">
        <time>1970-01-01T00:00:00+00:00</time>
        <ele>3080.0</ele>
      </trkpt>
      <trkpt lat="44.945242489641686" lon="6.3810679118631715">
        <time>1970-01-01T00:00:00+00:00</time>
        <ele>3083.0</ele>
      </trkpt>
      <trkpt lat="44.94515331952225" lon="6.380847215817562">
        <time>1970-01-01T00:00:00+00:00</time>
        <ele>3087.0</ele>
      </trkpt>
      <trkpt lat="44.94511" lon="6.38074">
        <time>1970-01-01T00:00:00+00:00</time>
        <ele>3090.0</ele>
      </trkpt>
      <trkpt lat="44.94511" lon="6.38074">
        <time>1970-01-01T00:00:00+00:00</time>
        <ele>3090.0</ele>
      </trkpt>
      <trkpt lat="44.944999789371046" lon="6.380539171742804">
        <time>1970-01-01T00:00:00+00:00</time>
        <ele>3096.0</ele>
      </trkpt>
      <trkpt lat="44.9448895787421" lon="6.380338343485606">
        <time>1970-01-01T00:00:00+00:00</time>
        <ele>3104.0</ele>
      </trkpt>
      <trkpt lat="44.944779368113146" lon="6.380137515228409">
        <time>1970-01-01T00:00:00+00:00</time>
        <ele>3111.0</ele>
      </trkpt>
      <trkpt lat="44.9446691574842" lon="6.379936686971212">
        <time>1970-01-01T00:00:00+00:00</time>
        <ele>3116.0</ele>
      </trkpt>
      <trkpt lat="44.94466" lon="6.37992">
        <time>1970-01-01T00:00:00+00:00</time>
        <ele>3116.0</ele>
      </trkpt>
      <trkpt lat="44.94466" lon="6.37992">
        <time>1970-01-01T00:00:00+00:00</time>
        <ele>3116.0</ele>
      </trkpt>
      <trkpt lat="44.944558972496" lon="6.379709753572739">
        <time>1970-01-01T00:00:00+00:00</time>
        <ele>3118.0</ele>
      </trkpt>
      <trkpt lat="44.94445794499198" lon="6.379499507145477">
        <time>1970-01-01T00:00:00+00:00</time>
        <ele>3121.0</ele>
      </trkpt>
      <trkpt lat="44.94435691748798" lon="6.379289260718214">
        <time>1970-01-01T00:00:00+00:00</time>
        <ele>3123.0</ele>
      </trkpt>
      <trkpt lat="44.94429" lon="6.37915">
        <time>1970-01-01T00:00:00+00:00</time>
        <ele>3125.0</ele>
      </trkpt>
      <trkpt lat="44.94429" lon="6.37915">
        <time>1970-01-01T00:00:00+00:00</time>
        <ele>3125.0</ele>
      </trkpt>
      <trkpt lat="44.94421980893351" lon="6.378916029778362">
        <time>1970-01-01T00:00:00+00:00</time>
        <ele>3128.0</ele>
      </trkpt>
      <trkpt lat="44.94414961786702" lon="6.378682059556725">
        <time>1970-01-01T00:00:00+00:00</time>
        <ele>3132.0</ele>
      </trkpt>
      <trkpt lat="44.94407942680053" lon="6.3784480893350874">
        <time>1970-01-01T00:00:00+00:00</time>
        <ele>3134.0</ele>
      </trkpt>
      <trkpt lat="44.94402" lon="6.37825">
        <time>1970-01-01T00:00:00+00:00</time>
        <ele>3135.0</ele>
      </trkpt>
      <trkpt lat="44.94402" lon="6.37825">
        <time>1970-01-01T00:00:00+00:00</time>
        <ele>3135.0</ele>
      </trkpt>
      <trkpt lat="44.943971939773235" lon="6.378005121701703">
        <time>1970-01-01T00:00:00+00:00</time>
        <ele>3136.0</ele>
      </trkpt>
      <trkpt lat="44.94392387954646" lon="6.377760243403405">
        <time>1970-01-01T00:00:00+00:00</time>
        <ele>3138.0</ele>
      </trkpt>
      <trkpt lat="44.94387581931969" lon="6.377515365105107">
        <time>1970-01-01T00:00:00+00:00</time>
        <ele>3139.0</ele>
      </trkpt>
      <trkpt lat="44.943827759092926" lon="6.377270486806809">
        <time>1970-01-01T00:00:00+00:00</time>
        <ele>3141.0</ele>
      </trkpt>
      <trkpt lat="44.94381" lon="6.37718">
        <time>1970-01-01T00:00:00+00:00</time>
        <ele>3142.0</ele>
      </trkpt>
      <trkpt lat="44.94381" lon="6.37718">
        <time>1970-01-01T00:00:00+00:00</time>
        <ele>3142.0</ele>
      </trkpt>
      <trkpt lat="44.943735269099946" lon="6.376948855588209">
        <time>1970-01-01T00:00:00+00:00</time>
        <ele>3143.0</ele>
      </trkpt>
      <trkpt lat="44.94366053819989" lon="6.3767177111764175">
        <time>1970-01-01T00:00:00+00:00</time>
        <ele>3144.0</ele>
      </trkpt>
      <trkpt lat="44.94358580729984" lon="6.376486566764627">
        <time>1970-01-01T00:00:00+00:00</time>
        <ele>3146.0</ele>
      </trkpt>
      <trkpt lat="44.94351107639979" lon="6.376255422352836">
        <time>1970-01-01T00:00:00+00:00</time>
        <ele>3148.0</ele>
      </trkpt>
      <trkpt lat="44.943436345499734" lon="6.3760242779410445">
        <time>1970-01-01T00:00:00+00:00</time>
        <ele>3152.0</ele>
      </trkpt>
      <trkpt lat="44.94338" lon="6.37585">
        <time>1970-01-01T00:00:00+00:00</time>
        <ele>3154.0</ele>
      </trkpt>
      <trkpt lat="44.94338" lon="6.37585">
        <time>1970-01-01T00:00:00+00:00</time>
        <ele>3154.0</ele>
      </trkpt>
      <trkpt lat="44.943295794778265" lon="6.375625452742044">
        <time>1970-01-01T00:00:00+00:00</time>
        <ele>3156.0</ele>
      </trkpt>
      <trkpt lat="44.94321158955653" lon="6.375400905484089">
        <time>1970-01-01T00:00:00+00:00</time>
        <ele>3158.0</ele>
      </trkpt>
      <trkpt lat="44.94317" lon="6.37529">
        <time>1970-01-01T00:00:00+00:00</time>
        <ele>3159.0</ele>
      </trkpt>
      <trkpt lat="44.94317" lon="6.37529">
        <time>1970-01-01T00:00:00+00:00</time>
        <ele>3159.0</ele>
      </trkpt>
      <trkpt lat="44.94307908625259" lon="6.375070737432703">
        <time>1970-01-01T00:00:00+00:00</time>
        <ele>3162.0</ele>
      </trkpt>
      <trkpt lat="44.94298817250517" lon="6.374851474865407">
        <time>1970-01-01T00:00:00+00:00</time>
        <ele>3164.0</ele>
      </trkpt>
      <trkpt lat="44.94289725875775" lon="6.374632212298111">
        <time>1970-01-01T00:00:00+00:00</time>
        <ele>3166.0</ele>
      </trkpt>
      <trkpt lat="44.94283" lon="6.37447">
        <time>1970-01-01T00:00:00+00:00</time>
        <ele>3167.0</ele>
      </trkpt>
      <trkpt lat="44.94283" lon="6.37447">
        <time>1970-01-01T00:00:00+00:00</time>
        <ele>3167.0</ele>
      </trkpt>
      <trkpt lat="44.94271963926426" lon="6.3742693441168345">
        <time>1970-01-01T00:00:00+00:00</time>
        <ele>3168.0</ele>
      </trkpt>
      <trkpt lat="44.94260927852852" lon="6.374068688233669">
        <time>1970-01-01T00:00:00+00:00</time>
        <ele>3169.0</ele>
      </trkpt>
      <trkpt lat="44.9425" lon="6.37387">
        <time>1970-01-01T00:00:00+00:00</time>
        <ele>3170.0</ele>
      </trkpt>
      <trkpt lat="44.9425" lon="6.37387">
        <time>1970-01-01T00:00:00+00:00</time>
        <ele>3170.0</ele>
      </trkpt>
      <trkpt lat="44.94239021100026" lon="6.373668720167135">
        <time>1970-01-01T00:00:00+00:00</time>
        <ele>3170.0</ele>
      </trkpt>
      <trkpt lat="44.94228042200051" lon="6.373467440334272">
        <time>1970-01-01T00:00:00+00:00</time>
        <ele>3171.0</ele>
      </trkpt>
      <trkpt lat="44.9422" lon="6.37332">
        <time>1970-01-01T00:00:00+00:00</time>
        <ele>3171.0</ele>
      </trkpt>
      <trkpt lat="44.9422" lon="6.37332">
        <time>1970-01-01T00:00:00+00:00</time>
        <ele>3171.0</ele>
      </trkpt>
      <trkpt lat="44.94209893945303" lon="6.373109794062307">
        <time>1970-01-01T00:00:00+00:00</time>
        <ele>3172.0</ele>
      </trkpt>
      <trkpt lat="44.941997878906065" lon="6.372899588124614">
        <time>1970-01-01T00:00:00+00:00</time>
        <ele>3173.0</ele>
      </trkpt>
      <trkpt lat="44.94195" lon="6.3728">
        <time>1970-01-01T00:00:00+00:00</time>
        <ele>3173.0</ele>
      </trkpt>
      <trkpt lat="44.94195" lon="6.3728">
        <time>1970-01-01T00:00:00+00:00</time>
        <ele>3173.0</ele>
      </trkpt>
      <trkpt lat="44.9418568417332" lon="6.372582630710795">
        <time>1970-01-01T00:00:00+00:00</time>
        <ele>3175.0</ele>
      </trkpt>
      <trkpt lat="44.94176368346639" lon="6.37236526142159">
        <time>1970-01-01T00:00:00+00:00</time>
        <ele>3176.0</ele>
      </trkpt>
      <trkpt lat="44.94167052519959" lon="6.372147892132385">
        <time>1970-01-01T00:00:00+00:00</time>
        <ele>3177.0</ele>
      </trkpt>
      <trkpt lat="44.94162" lon="6.37203">
        <time>1970-01-01T00:00:00+00:00</time>
        <ele>3178.0</ele>
      </trkpt>
      <trkpt lat="44.94162" lon="6.37203">
        <time>1970-01-01T00:00:00+00:00</time>
        <ele>3178.0</ele>
      </trkpt>
      <trkpt lat="44.94150603517827" lon="6.371833410682516">
        <time>1970-01-01T00:00:00+00:00</time>
        <ele>3179.0</ele>
      </trkpt>
      <trkpt lat="44.94139207035654" lon="6.371636821365033">
        <time>1970-01-01T00:00:00+00:00</time>
        <ele>3179.0</ele>
      </trkpt>
      <trkpt lat="44.94127810553482" lon="6.37144023204755">
        <time>1970-01-01T00:00:00+00:00</time>
        <ele>3180.0</ele>
      </trkpt>
      <trkpt lat="44.94122" lon="6.37134">
        <time>1970-01-01T00:00:00+00:00</time>
        <ele>3181.0</ele>
      </trkpt>
      <trkpt lat="44.94122" lon="6.37134">
        <time>1970-01-01T00:00:00+00:00</time>
        <ele>3181.0</ele>
      </trkpt>
      <trkpt lat="44.941089192860545" lon="6.371165590480721">
        <time>1970-01-01T00:00:00+00:00</time>
        <ele>3181.0</ele>
      </trkpt>
      <trkpt lat="44.940958385721075" lon="6.370991180961441">
        <time>1970-01-01T00:00:00+00:00</time>
        <ele>3183.0</ele>
      </trkpt>
      <trkpt lat="44.940827578581626" lon="6.37081677144216">
        <time>1970-01-01T00:00:00+00:00</time>
        <ele>3184.0</ele>
      </trkpt>
      <trkpt lat="44.94077" lon="6.37074">
        <time>1970-01-01T00:00:00+00:00</time>
        <ele>3185.0</ele>
      </trkpt>
      <trkpt lat="44.94077" lon="6.37074">
        <time>1970-01-01T00:00:00+00:00</time>
        <ele>3185.0</ele>
      </trkpt>
      <trkpt lat="44.94065095124705" lon="6.370549521995273">
        <time>1970-01-01T00:00:00+00:00</time>
        <ele>3186.0</ele>
      </trkpt>
      <trkpt lat="44.94053190249409" lon="6.370359043990546">
        <time>1970-01-01T00:00:00+00:00</time>
        <ele>3187.0</ele>
      </trkpt>
      <trkpt lat="44.94041285374114" lon="6.37016856598582">
        <time>1970-01-01T00:00:00+00:00</time>
        <ele>3189.0</ele>
      </trkpt>
      <trkpt lat="44.94037" lon="6.3701">
        <time>1970-01-01T00:00:00+00:00</time>
        <ele>3190.0</ele>
      </trkpt>
      <trkpt lat="44.94037" lon="6.3701">
        <time>1970-01-01T00:00:00+00:00</time>
        <ele>3190.0</ele>
      </trkpt>
      <trkpt lat="44.94025369896892" lon="6.369906164948192">
        <time>1970-01-01T00:00:00+00:00</time>
        <ele>3192.0</ele>
      </trkpt>
      <trkpt lat="44.94013739793783" lon="6.369712329896386">
        <time>1970-01-01T00:00:00+00:00</time>
        <ele>3194.0</ele>
      </trkpt>
      <trkpt lat="44.94002109690675" lon="6.369518494844578">
        <time>1970-01-01T00:00:00+00:00</time>
        <ele>3196.0</ele>
      </trkpt>
      <trkpt lat="44.93998" lon="6.36945">
        <time>1970-01-01T00:00:00+00:00</time>
        <ele>3197.0</ele>
      </trkpt>
      <trkpt lat="44.93998" lon="6.36945">
        <time>1970-01-01T00:00:00+00:00</time>
        <ele>3197.0</ele>
      </trkpt>
      <trkpt lat="44.939859420101726" lon="6.369261456886327">
        <time>1970-01-01T00:00:00+00:00</time>
        <ele>3200.0</ele>
      </trkpt>
      <trkpt lat="44.93973884020344" lon="6.369072913772653">
        <time>1970-01-01T00:00:00+00:00</time>
        <ele>3202.0</ele>
      </trkpt>
      <trkpt lat="44.93961826030516" lon="6.36888437065898">
        <time>1970-01-01T00:00:00+00:00</time>
        <ele>3206.0</ele>
      </trkpt>
      <trkpt lat="44.93949768040688" lon="6.368695827545306">
        <time>1970-01-01T00:00:00+00:00</time>
        <ele>3210.0</ele>
      </trkpt>
      <trkpt lat="44.93943" lon="6.36859">
        <time>1970-01-01T00:00:00+00:00</time>
        <ele>3212.0</ele>
      </trkpt>
      <trkpt lat="44.93943" lon="6.36859">
        <time>1970-01-01T00:00:00+00:00</time>
        <ele>3212.0</ele>
      </trkpt>
      <trkpt lat="44.93930771575831" lon="6.368403662107903">
        <time>1970-01-01T00:00:00+00:00</time>
        <ele>3214.0</ele>
      </trkpt>
      <trkpt lat="44.93918543151663" lon="6.368217324215807">
        <time>1970-01-01T00:00:00+00:00</time>
        <ele>3216.0</ele>
      </trkpt>
      <trkpt lat="44.939063147274936" lon="6.36803098632371">
        <time>1970-01-01T00:00:00+00:00</time>
        <ele>3218.0</ele>
      </trkpt>
      <trkpt lat="44.93901" lon="6.36795">
        <time>1970-01-01T00:00:00+00:00</time>
        <ele>3218.0</ele>
      </trkpt>
      <trkpt lat="44.93901" lon="6.36795">
        <time>1970-01-01T00:00:00+00:00</time>
        <ele>3218.0</ele>
      </trkpt>
      <trkpt lat="44.93884924932171" lon="6.3678360131553955">
        <time>1970-01-01T00:00:00+00:00</time>
        <ele>3218.0</ele>
      </trkpt>
      <trkpt lat="44.93868849864342" lon="6.3677220263107905">
        <time>1970-01-01T00:00:00+00:00</time>
        <ele>3217.0</ele>
      </trkpt>
      <trkpt lat="44.93852774796513" lon="6.367608039466186">
        <time>1970-01-01T00:00:00+00:00</time>
        <ele>3217.0</ele>
      </trkpt>
      <trkpt lat="44.93846" lon="6.36756">
        <time>1970-01-01T00:00:00+00:00</time>
        <ele>3218.0</ele>
      </trkpt>
      <trkpt lat="44.93846" lon="6.36756">
        <time>1970-01-01T00:00:00+00:00</time>
        <ele>3218.0</ele>
      </trkpt>
      <trkpt lat="44.93832809135168" lon="6.367387262484338">
        <time>1970-01-01T00:00:00+00:00</time>
        <ele>3221.0</ele>
      </trkpt>
      <trkpt lat="44.93819618270335" lon="6.367214524968675">
        <time>1970-01-01T00:00:00+00:00</time>
        <ele>3225.0</ele>
      </trkpt>
      <trkpt lat="44.93806427405503" lon="6.367041787453014">
        <time>1970-01-01T00:00:00+00:00</time>
        <ele>3228.0</ele>
      </trkpt>
      <trkpt lat="44.93804" lon="6.36701">
        <time>1970-01-01T00:00:00+00:00</time>
        <ele>3229.0</ele>
      </trkpt>
      <trkpt lat="44.93804" lon="6.36701">
        <time>1970-01-01T00:00:00+00:00</time>
        <ele>3229.0</ele>
      </trkpt>
      <trkpt lat="44.93789619233666" lon="6.366857387785842">
        <time>1970-01-01T00:00:00+00:00</time>
        <ele>3232.0</ele>
      </trkpt>
      <trkpt lat="44.93775238467332" lon="6.366704775571686">
        <time>1970-01-01T00:00:00+00:00</time>
        <ele>3234.0</ele>
      </trkpt>
      <trkpt lat="44.93760857700998" lon="6.36655216335753">
        <time>1970-01-01T00:00:00+00:00</time>
        <ele>3235.0</ele>
      </trkpt>
      <trkpt lat="44.93755" lon="6.36649">
        <time>1970-01-01T00:00:00+00:00</time>
        <ele>3236.0</ele>
      </trkpt>
      <trkpt lat="44.93755" lon="6.36649">
        <time>1970-01-01T00:00:00+00:00</time>
        <ele>3236.0</ele>
      </trkpt>
      <trkpt lat="44.93740519441089" lon="6.366339283978686">
        <time>1970-01-01T00:00:00+00:00</time>
        <ele>3238.0</ele>
      </trkpt>
      <trkpt lat="44.93726038882179" lon="6.366188567957371">
        <time>1970-01-01T00:00:00+00:00</time>
        <ele>3242.0</ele>
      </trkpt>
      <trkpt lat="44.93711558323269" lon="6.366037851936057">
        <time>1970-01-01T00:00:00+00:00</time>
        <ele>3245.0</ele>
      </trkpt>
      <trkpt lat="44.93706" lon="6.36598">
        <time>1970-01-01T00:00:00+00:00</time>
        <ele>3245.0</ele>
      </trkpt>
      <trkpt lat="44.93706" lon="6.36598">
        <time>1970-01-01T00:00:00+00:00</time>
        <ele>3245.0</ele>
      </trkpt>
      <trkpt lat="44.93692016640203" lon="6.365820190173759">
        <time>1970-01-01T00:00:00+00:00</time>
        <ele>3247.0</ele>
      </trkpt>
      <trkpt lat="44.93678033280408" lon="6.365660380347517">
        <time>1970-01-01T00:00:00+00:00</time>
        <ele>3251.0</ele>
      </trkpt>
      <trkpt lat="44.93664049920611" lon="6.365500570521277">
        <time>1970-01-01T00:00:00+00:00</time>
        <ele>3254.0</ele>
      </trkpt>
      <trkpt lat="44.93664" lon="6.3655">
        <time>1970-01-01T00:00:00+00:00</time>
        <ele>3254.0</ele>
      </trkpt>
      <trkpt lat="44.93664" lon="6.3655">
        <time>1970-01-01T00:00:00+00:00</time>
        <ele>3254.0</ele>
      </trkpt>
      <trkpt lat="44.93649488517053" lon="6.36534988121089">
        <time>1970-01-01T00:00:00+00:00</time>
        <ele>3258.0</ele>
      </trkpt>
      <trkpt lat="44.93634977034105" lon="6.3651997624217795">
        <time>1970-01-01T00:00:00+00:00</time>
        <ele>3260.0</ele>
      </trkpt>
      <trkpt lat="44.93620465551158" lon="6.365049643632671">
        <time>1970-01-01T00:00:00+00:00</time>
        <ele>3261.0</ele>
      </trkpt>
      <trkpt lat="44.93606" lon="6.3649">
        <time>1970-01-01T00:00:00+00:00</time>
        <ele>3262.0</ele>
      </trkpt>
      <trkpt lat="44.93606" lon="6.3649">
        <time>1970-01-01T00:00:00+00:00</time>
        <ele>3262.0</ele>
      </trkpt>
      <trkpt lat="44.93592698177663" lon="6.364728976569958">
        <time>1970-01-01T00:00:00+00:00</time>
        <ele>3265.0</ele>
      </trkpt>
      <trkpt lat="44.935793963553266" lon="6.364557953139915">
        <time>1970-01-01T00:00:00+00:00</time>
        <ele>3267.0</ele>
      </trkpt>
      <trkpt lat="44.9356609453299" lon="6.364386929709873">
        <time>1970-01-01T00:00:00+00:00</time>
        <ele>3268.0</ele>
      </trkpt>
      <trkpt lat="44.93552792710654" lon="6.3642159062798305">
        <time>1970-01-01T00:00:00+00:00</time>
        <ele>3269.0</ele>
      </trkpt>
      <trkpt lat="44.93539490888317" lon="6.364044882849788">
        <time>1970-01-01T00:00:00+00:00</time>
        <ele>3270.0</ele>
      </trkpt>
      <trkpt lat="44.93536" lon="6.364">
        <time>1970-01-01T00:00:00+00:00</time>
        <ele>3271.0</ele>
      </trkpt>
      <trkpt lat="44.93536" lon="6.364">
        <time>1970-01-01T00:00:00+00:00</time>
        <ele>3271.0</ele>
      </trkpt>
      <trkpt lat="44.93527441496168" lon="6.363776527955503">
        <time>1970-01-01T00:00:00+00:00</time>
        <ele>3272.0</ele>
      </trkpt>
      <trkpt lat="44.93518882992336" lon="6.363553055911007">
        <time>1970-01-01T00:00:00+00:00</time>
        <ele>3273.0</ele>
      </trkpt>
      <trkpt lat="44.93510324488505" lon="6.363329583866511">
        <time>1970-01-01T00:00:00+00:00</time>
        <ele>3275.0</ele>
      </trkpt>
      <trkpt lat="44.93501765984673" lon="6.363106111822015">
        <time>1970-01-01T00:00:00+00:00</time>
        <ele>3276.0</ele>
      </trkpt>
      <trkpt lat="44.935" lon="6.36306">
        <time>1970-01-01T00:00:00+00:00</time>
        <ele>3277.0</ele>
      </trkpt>
      <trkpt lat="44.935" lon="6.36306">
        <time>1970-01-01T00:00:00+00:00</time>
        <ele>3277.0</ele>
      </trkpt>
      <trkpt lat="44.93488115226147" lon="6.362869290838175">
        <time>1970-01-01T00:00:00+00:00</time>
        <ele>3277.0</ele>
      </trkpt>
      <trkpt lat="44.93476230452295" lon="6.362678581676349">
        <time>1970-01-01T00:00:00+00:00</time>
        <ele>3277.0</ele>
      </trkpt>
      <trkpt lat="44.93464345678441" lon="6.362487872514522">
        <time>1970-01-01T00:00:00+00:00</time>
        <ele>3277.0</ele>
      </trkpt>
      <trkpt lat="44.93457" lon="6.36237">
        <time>1970-01-01T00:00:00+00:00</time>
        <ele>3277.0</ele>
      </trkpt>
      <trkpt lat="44.93457" lon="6.36237">
        <time>1970-01-01T00:00:00+00:00</time>
        <ele>3277.0</ele>
      </trkpt>
      <trkpt lat="44.934480615809456" lon="6.362149518996654">
        <time>1970-01-01T00:00:00+00:00</time>
        <ele>3279.0</ele>
      </trkpt>
      <trkpt lat="44.93439123161891" lon="6.361929037993308">
        <time>1970-01-01T00:00:00+00:00</time>
        <ele>3280.0</ele>
      </trkpt>
      <trkpt lat="44.93430184742836" lon="6.361708556989962">
        <time>1970-01-01T00:00:00+00:00</time>
        <ele>3284.0</ele>
      </trkpt>
      <trkpt lat="44.93421246323782" lon="6.361488075986616">
        <time>1970-01-01T00:00:00+00:00</time>
        <ele>3286.0</ele>
      </trkpt>
      <trkpt lat="44.934123079047275" lon="6.36126759498327">
        <time>1970-01-01T00:00:00+00:00</time>
        <ele>3289.0</ele>
      </trkpt>
      <trkpt lat="44.93412" lon="6.36126">
        <time>1970-01-01T00:00:00+00:00</time>
        <ele>3289.0</ele>
      </trkpt>
      <trkpt lat="44.93412" lon="6.36126">
        <time>1970-01-01T00:00:00+00:00</time>
        <ele>3289.0</ele>
      </trkpt>
      <trkpt lat="44.93400487573952" lon="6.361064789297438">
        <time>1970-01-01T00:00:00+00:00</time>
        <ele>3294.0</ele>
      </trkpt>
      <trkpt lat="44.93388975147903" lon="6.360869578594876">
        <time>1970-01-01T00:00:00+00:00</time>
        <ele>3298.0</ele>
      </trkpt>
      <trkpt lat="44.93377462721855" lon="6.360674367892313">
        <time>1970-01-01T00:00:00+00:00</time>
        <ele>3304.0</ele>
      </trkpt>
      <trkpt lat="44.93366" lon="6.36048">
        <time>1970-01-01T00:00:00+00:00</time>
        <ele>3307.0</ele>
      </trkpt>
      <trkpt lat="44.93366" lon="6.36048">
        <time>1970-01-01T00:00:00+00:00</time>
        <ele>3307.0</ele>
      </trkpt>
      <trkpt lat="44.9335205884168" lon="6.360319465449645">
        <time>1970-01-01T00:00:00+00:00</time>
        <ele>3309.0</ele>
      </trkpt>
      <trkpt lat="44.93338117683359" lon="6.360158930899289">
        <time>1970-01-01T00:00:00+00:00</time>
        <ele>3310.0</ele>
      </trkpt>
      <trkpt lat="44.93333" lon="6.3601">
        <time>1970-01-01T00:00:00+00:00</time>
        <ele>3311.0</ele>
      </trkpt>
      <trkpt lat="44.93333" lon="6.3601">
        <time>1970-01-01T00:00:00+00:00</time>
        <ele>3311.0</ele>
      </trkpt>
      <trkpt lat="44.93320249393906" lon="6.359920802292738">
        <time>1970-01-01T00:00:00+00:00</time>
        <ele>3314.0</ele>
      </trkpt>
      <trkpt lat="44.93307498787813" lon="6.3597416045854755">
        <time>1970-01-01T00:00:00+00:00</time>
        <ele>3317.0</ele>
      </trkpt>
      <trkpt lat="44.93296" lon="6.35958">
        <time>1970-01-01T00:00:00+00:00</time>
        <ele>3320.0</ele>
      </trkpt>
      <trkpt lat="44.93296" lon="6.35958">
        <time>1970-01-01T00:00:00+00:00</time>
        <ele>3320.0</ele>
      </trkpt>
      <trkpt lat="44.93280561886094" lon="6.359449633704793">
        <time>1970-01-01T00:00:00+00:00</time>
        <ele>3323.0</ele>
      </trkpt>
      <trkpt lat="44.93265123772188" lon="6.359319267409587">
        <time>1970-01-01T00:00:00+00:00</time>
        <ele>3327.0</ele>
      </trkpt>
      <trkpt lat="44.93251" lon="6.3592">
        <time>1970-01-01T00:00:00+00:00</time>
        <ele>3332.0</ele>
      </trkpt>
      <trkpt lat="44.93251" lon="6.3592">
        <time>1970-01-01T00:00:00+00:00</time>
        <ele>3332.0</ele>
      </trkpt>
      <trkpt lat="44.93235182689314" lon="6.35907904409475">
        <time>1970-01-01T00:00:00+00:00</time>
        <ele>3337.0</ele>
      </trkpt>
      <trkpt lat="44.93219365378627" lon="6.358958088189501">
        <time>1970-01-01T00:00:00+00:00</time>
        <ele>3342.0</ele>
      </trkpt>
      <trkpt lat="44.93217" lon="6.35894">
        <time>1970-01-01T00:00:00+00:00</time>
        <ele>3343.0</ele>
      </trkpt>
      <trkpt lat="44.93217" lon="6.35894">
        <time>1970-01-01T00:00:00+00:00</time>
        <ele>3343.0</ele>
      </trkpt>
      <trkpt lat="44.93200505782204" lon="6.358838678376395">
        <time>1970-01-01T00:00:00+00:00</time>
        <ele>3348.0</ele>
      </trkpt>
      <trkpt lat="44.93184011564408" lon="6.358737356752789">
        <time>1970-01-01T00:00:00+00:00</time>
        <ele>3355.0</ele>
      </trkpt>
      <trkpt lat="44.93167517346611" lon="6.358636035129184">
        <time>1970-01-01T00:00:00+00:00</time>
        <ele>3364.0</ele>
      </trkpt>
      <trkpt lat="44.931510231288144" lon="6.358534713505579">
        <time>1970-01-01T00:00:00+00:00</time>
        <ele>3374.0</ele>
      </trkpt>
      <trkpt lat="44.93147" lon="6.35851">
        <time>1970-01-01T00:00:00+00:00</time>
        <ele>3376.0</ele>
      </trkpt>
      <trkpt lat="44.93147" lon="6.35851">
        <time>1970-01-01T00:00:00+00:00</time>
        <ele>3376.0</ele>
      </trkpt>
      <trkpt lat="44.931295958312674" lon="6.358574120621643">
        <time>1970-01-01T00:00:00+00:00</time>
        <ele>3384.0</ele>
      </trkpt>
      <trkpt lat="44.93112191662536" lon="6.358638241243288">
        <time>1970-01-01T00:00:00+00:00</time>
        <ele>3394.0</ele>
      </trkpt>
      <trkpt lat="44.93094787493804" lon="6.358702361864932">
        <time>1970-01-01T00:00:00+00:00</time>
        <ele>3404.0</ele>
      </trkpt>
      <trkpt lat="44.9309" lon="6.35872">
        <time>1970-01-01T00:00:00+00:00</time>
        <ele>3408.0</ele>
      </trkpt>
      <trkpt lat="44.9309" lon="6.35872">
        <time>1970-01-01T00:00:00+00:00</time>
        <ele>3408.0</ele>
      </trkpt>
      <trkpt lat="44.930734648590175" lon="6.3588199799222185">
        <time>1970-01-01T00:00:00+00:00</time>
        <ele>3421.0</ele>
      </trkpt>
      <trkpt lat="44.930569297180355" lon="6.358919959844439">
        <time>1970-01-01T00:00:00+00:00</time>
        <ele>3436.0</ele>
      </trkpt>
      <trkpt lat="44.93047" lon="6.35898">
        <time>1970-01-01T00:00:00+00:00</time>
        <ele>3443.0</ele>
      </trkpt>
      <trkpt lat="44.93047" lon="6.35898">
        <time>1970-01-01T00:00:00+00:00</time>
        <ele>3443.0</ele>
      </trkpt>
      <trkpt lat="44.93029941615683" lon="6.3590605534815">
        <time>1970-01-01T00:00:00+00:00</time>
        <ele>3458.0</ele>
      </trkpt>
      <trkpt lat="44.93012883231365" lon="6.3591411069629995">
        <time>1970-01-01T00:00:00+00:00</time>
        <ele>3471.0</ele>
      </trkpt>
      <trkpt lat="44.93011" lon="6.35915">
        <time>1970-01-01T00:00:00+00:00</time>
        <ele>3473.0</ele>
      </trkpt>
      <trkpt lat="44.93011" lon="6.35915">
        <time>1970-01-01T00:00:00+00:00</time>
        <ele>3473.0</ele>
      </trkpt>
      <trkpt lat="44.929986693924405" lon="6.359334959113402">
        <time>1970-01-01T00:00:00+00:00</time>
        <ele>3482.0</ele>
      </trkpt>
      <trkpt lat="44.9298633878488" lon="6.359519918226802">
        <time>1970-01-01T00:00:00+00:00</time>
        <ele>3489.0</ele>
      </trkpt>
      <trkpt lat="44.929740081773204" lon="6.359704877340203">
        <time>1970-01-01T00:00:00+00:00</time>
        <ele>3496.0</ele>
      </trkpt>
      <trkpt lat="44.92971" lon="6.35975">
        <time>1970-01-01T00:00:00+00:00</time>
        <ele>3498.0</ele>
      </trkpt>
      <trkpt lat="44.92971" lon="6.35975">
        <time>1970-01-01T00:00:00+00:00</time>
        <ele>3498.0</ele>
      </trkpt>
      <trkpt lat="44.92956320158123" lon="6.359896798418766">
        <time>1970-01-01T00:00:00+00:00</time>
        <ele>3509.0</ele>
      </trkpt>
      <trkpt lat="44.92941640316247" lon="6.3600435968375315">
        <time>1970-01-01T00:00:00+00:00</time>
        <ele>3518.0</ele>
      </trkpt>
      <trkpt lat="44.92932" lon="6.36014">
        <time>1970-01-01T00:00:00+00:00</time>
        <ele>3523.0</ele>
      </trkpt>
      <trkpt lat="44.92932" lon="6.36014">
        <time>1970-01-01T00:00:00+00:00</time>
        <ele>3523.0</ele>
      </trkpt>
      <trkpt lat="44.929175849490946" lon="6.360291942428461">
        <time>1970-01-01T00:00:00+00:00</time>
        <ele>3530.0</ele>
      </trkpt>
      <trkpt lat="44.9290316989819" lon="6.360443884856919">
        <time>1970-01-01T00:00:00+00:00</time>
        <ele>3537.0</ele>
      </trkpt>
      <trkpt lat="44.92895" lon="6.36053">
        <time>1970-01-01T00:00:00+00:00</time>
        <ele>3541.0</ele>
      </trkpt>
      <trkpt lat="44.92895" lon="6.36053">
        <time>1970-01-01T00:00:00+00:00</time>
        <ele>3541.0</ele>
      </trkpt>
      <trkpt lat="44.928810318277606" lon="6.360690051973574">
        <time>1970-01-01T00:00:00+00:00</time>
        <ele>3547.0</ele>
      </trkpt>
      <trkpt lat="44.92867063655521" lon="6.360850103947149">
        <time>1970-01-01T00:00:00+00:00</time>
        <ele>3553.0</ele>
      </trkpt>
      <trkpt lat="44.92853095483282" lon="6.361010155920724">
        <time>1970-01-01T00:00:00+00:00</time>
        <ele>3562.0</ele>
      </trkpt>
      <trkpt lat="44.92847" lon="6.36108">
        <time>1970-01-01T00:00:00+00:00</time>
        <ele>3565.0</ele>
      </trkpt>
      <trkpt lat="44.92847" lon="6.36108">
        <time>1970-01-01T00:00:00+00:00</time>
        <ele>3565.0</ele>
      </trkpt>
      <trkpt lat="44.9283089642212" lon="6.361193160276995">
        <time>1970-01-01T00:00:00+00:00</time>
        <ele>3574.0</ele>
      </trkpt>
      <trkpt lat="44.9281479284424" lon="6.3613063205539895">
        <time>1970-01-01T00:00:00+00:00</time>
        <ele>3583.0</ele>
      </trkpt>
      <trkpt lat="44.9281" lon="6.36134">
        <time>1970-01-01T00:00:00+00:00</time>
        <ele>3585.0</ele>
      </trkpt>
      <trkpt lat="44.9281" lon="6.36134">
        <time>1970-01-01T00:00:00+00:00</time>
        <ele>3585.0</ele>
      </trkpt>
      <trkpt lat="44.92793044601685" lon="6.361424776991571">
        <time>1970-01-01T00:00:00+00:00</time>
        <ele>3596.0</ele>
      </trkpt>
      <trkpt lat="44.92776089203372" lon="6.361509553983144">
        <time>1970-01-01T00:00:00+00:00</time>
        <ele>3605.0</ele>
      </trkpt>
      <trkpt lat="44.92759133805057" lon="6.3615943309747145">
        <time>1970-01-01T00:00:00+00:00</time>
        <ele>3613.0</ele>
      </trkpt>
      <trkpt lat="44.92758" lon="6.3616">
        <time>1970-01-01T00:00:00+00:00</time>
        <ele>3614.0</ele>
      </trkpt>
      <trkpt lat="44.92758" lon="6.3616">
        <time>1970-01-01T00:00:00+00:00</time>
        <ele>3614.0</ele>
      </trkpt>
      <trkpt lat="44.92741734407666" lon="6.361491562717768">
        <time>1970-01-01T00:00:00+00:00</time>
        <ele>3624.0</ele>
      </trkpt>
      <trkpt lat="44.92725468815331" lon="6.3613831254355375">
        <time>1970-01-01T00:00:00+00:00</time>
        <ele>3634.0</ele>
      </trkpt>
      <trkpt lat="44.92719" lon="6.36134">
        <time>1970-01-01T00:00:00+00:00</time>
        <ele>3638.0</ele>
      </trkpt>
      <trkpt lat="44.92719" lon="6.36134">
        <time>1970-01-01T00:00:00+00:00</time>
        <ele>3638.0</ele>
      </trkpt>
      <trkpt lat="44.927136497611684" lon="6.361097455839618">
        <time>1970-01-01T00:00:00+00:00</time>
        <ele>3644.0</ele>
      </trkpt>
      <trkpt lat="44.927082995223365" lon="6.360854911679234">
        <time>1970-01-01T00:00:00+00:00</time>
        <ele>3651.0</ele>
      </trkpt>
      <trkpt lat="44.92704" lon="6.36066">
        <time>1970-01-01T00:00:00+00:00</time>
        <ele>3656.0</ele>
      </trkpt>
      <trkpt lat="44.92704" lon="6.36066">
        <time>1970-01-01T00:00:00+00:00</time>
        <ele>3656.0</ele>
      </trkpt>
      <trkpt lat="44.92689687538151" lon="6.360506141035123">
        <time>1970-01-01T00:00:00+00:00</time>
        <ele>3667.0</ele>
      </trkpt>
      <trkpt lat="44.92675375076302" lon="6.360352282070245">
        <time>1970-01-01T00:00:00+00:00</time>
        <ele>3678.0</ele>
      </trkpt>
      <trkpt lat="44.92664" lon="6.36023">
        <time>1970-01-01T00:00:00+00:00</time>
        <ele>3683.0</ele>
      </trkpt>
      <trkpt lat="44.92664" lon="6.36023">
        <time>1970-01-01T00:00:00+00:00</time>
        <ele>3683.0</ele>
      </trkpt>
      <trkpt lat="44.926464944743174" lon="6.360171648247725">
        <time>1970-01-01T00:00:00+00:00</time>
        <ele>3691.0</ele>
      </trkpt>
      <trkpt lat="44.92637" lon="6.36014">
        <time>1970-01-01T00:00:00+00:00</time>
        <ele>3695.0</ele>
      </trkpt>
      <trkpt lat="44.92637" lon="6.36014">
        <time>1970-01-01T00:00:00+00:00</time>
        <ele>3695.0</ele>
      </trkpt>
      <trkpt lat="44.9262422573008" lon="6.360318839778882">
        <time>1970-01-01T00:00:00+00:00</time>
        <ele>3701.0</ele>
      </trkpt>
      <trkpt lat="44.92622" lon="6.36035">
        <time>1970-01-01T00:00:00+00:00</time>
        <ele>3702.0</ele>
      </trkpt>
      <trkpt lat="44.92622" lon="6.36035">
        <time>1970-01-01T00:00:00+00:00</time>
        <ele>3702.0</ele>
      </trkpt>
      <trkpt lat="44.92618522158744" lon="6.360599245290059">
        <time>1970-01-01T00:00:00+00:00</time>
        <ele>3705.0</ele>
      </trkpt>
      <trkpt lat="44.92616" lon="6.36078">
        <time>1970-01-01T00:00:00+00:00</time>
        <ele>3708.0</ele>
      </trkpt>
      <trkpt lat="44.92616" lon="6.36078">
        <time>1970-01-01T00:00:00+00:00</time>
        <ele>3708.0</ele>
      </trkpt>
      <trkpt lat="44.926138074374585" lon="6.361032144692298">
        <time>1970-01-01T00:00:00+00:00</time>
        <ele>3710.0</ele>
      </trkpt>
      <trkpt lat="44.92611614874916" lon="6.361284289384596">
        <time>1970-01-01T00:00:00+00:00</time>
        <ele>3713.0</ele>
      </trkpt>
      <trkpt lat="44.9261" lon="6.36147">
        <time>1970-01-01T00:00:00+00:00</time>
        <ele>3714.0</ele>
      </trkpt>
      <trkpt lat="44.9261" lon="6.36147">
        <time>1970-01-01T00:00:00+00:00</time>
        <ele>3714.0</ele>
      </trkpt>
      <trkpt lat="44.92609999999999" lon="6.3617240391145815">
        <time>1970-01-01T00:00:00+00:00</time>
        <ele>3714.0</ele>
      </trkpt>
      <trkpt lat="44.9261" lon="6.361978078229163">
        <time>1970-01-01T00:00:00+00:00</time>
        <ele>3715.0</ele>
      </trkpt>
      <trkpt lat="44.9261" lon="6.362232117343744">
        <time>1970-01-01T00:00:00+00:00</time>
        <ele>3716.0</ele>
      </trkpt>
      <trkpt lat="44.9261" lon="6.36229">
        <time>1970-01-01T00:00:00+00:00</time>
        <ele>3717.0</ele>
      </trkpt>
      <trkpt lat="44.9261" lon="6.36229">
        <time>1970-01-01T00:00:00+00:00</time>
        <ele>3717.0</ele>
      </trkpt>
      <trkpt lat="44.92603" lon="6.3625">
        <time>1970-01-01T00:00:00+00:00</time>
        <ele>3724.0</ele>
      </trkpt>
      <trkpt lat="44.92603" lon="6.3625">
        <time>1970-01-01T00:00:00+00:00</time>
        <ele>3724.0</ele>
      </trkpt>
      <trkpt lat="44.92593177781035" lon="6.362712814744253">
        <time>1970-01-01T00:00:00+00:00</time>
        <ele>3736.0</ele>
      </trkpt>
      <trkpt lat="44.92591" lon="6.36276">
        <time>1970-01-01T00:00:00+00:00</time>
        <ele>3738.0</ele>
      </trkpt>
      <trkpt lat="44.92591" lon="6.36276">
        <time>1970-01-01T00:00:00+00:00</time>
        <ele>3738.0</ele>
      </trkpt>
      <trkpt lat="44.92573975609348" lon="6.362841969288327">
        <time>1970-01-01T00:00:00+00:00</time>
        <ele>3755.0</ele>
      </trkpt>
      <trkpt lat="44.92564" lon="6.36289">
        <time>1970-01-01T00:00:00+00:00</time>
        <ele>3765.0</ele>
      </trkpt>
      <trkpt lat="44.92564" lon="6.36289">
        <time>1970-01-01T00:00:00+00:00</time>
        <ele>3765.0</ele>
      </trkpt>
      <trkpt lat="44.92547922220115" lon="6.362776115725809">
        <time>1970-01-01T00:00:00+00:00</time>
        <ele>3779.0</ele>
      </trkpt>
      <trkpt lat="44.9254" lon="6.36272">
        <time>1970-01-01T00:00:00+00:00</time>
        <ele>3786.0</ele>
      </trkpt>
      <trkpt lat="44.9254" lon="6.36272">
        <time>1970-01-01T00:00:00+00:00</time>
        <ele>3786.0</ele>
      </trkpt>
      <trkpt lat="44.92523239548033" lon="6.362627817514178">
        <time>1970-01-01T00:00:00+00:00</time>
        <ele>3800.0</ele>
      </trkpt>
      <trkpt lat="44.92506479096065" lon="6.362535635028355">
        <time>1970-01-01T00:00:00+00:00</time>
        <ele>3814.0</ele>
      </trkpt>
      <trkpt lat="44.925" lon="6.3625">
        <time>1970-01-01T00:00:00+00:00</time>
        <ele>3819.0</ele>
      </trkpt>
      <trkpt lat="44.925" lon="6.3625">
        <time>1970-01-01T00:00:00+00:00</time>
        <ele>3819.0</ele>
      </trkpt>
      <trkpt lat="44.924905879700766" lon="6.362283523311766">
        <time>1970-01-01T00:00:00+00:00</time>
        <ele>3821.0</ele>
      </trkpt>
      <trkpt lat="44.924811759401535" lon="6.362067046623533">
        <time>1970-01-01T00:00:00+00:00</time>
        <ele>3824.0</ele>
      </trkpt>
      <trkpt lat="44.924717639102305" lon="6.3618505699353">
        <time>1970-01-01T00:00:00+00:00</time>
        <ele>3828.0</ele>
      </trkpt>
      <trkpt lat="44.9247" lon="6.36181">
        <time>1970-01-01T00:00:00+00:00</time>
        <ele>3829.0</ele>
      </trkpt>
      <trkpt lat="44.9247" lon="6.36181">
        <time>1970-01-01T00:00:00+00:00</time>
        <ele>3829.0</ele>
      </trkpt>
      <trkpt lat="44.92460488091736" lon="6.361594396746001">
        <time>1970-01-01T00:00:00+00:00</time>
        <ele>3835.0</ele>
      </trkpt>
      <trkpt lat="44.92455" lon="6.36147">
        <time>1970-01-01T00:00:00+00:00</time>
        <ele>3839.0</ele>
      </trkpt>
      <trkpt lat="44.92455" lon="6.36147">
        <time>1970-01-01T00:00:00+00:00</time>
        <ele>3839.0</ele>
      </trkpt>
      <trkpt lat="44.92450297605781" lon="6.361224803729991">
        <time>1970-01-01T00:00:00+00:00</time>
        <ele>3841.0</ele>
      </trkpt>
      <trkpt lat="44.924455952115615" lon="6.360979607459983">
        <time>1970-01-01T00:00:00+00:00</time>
        <ele>3844.0</ele>
      </trkpt>
      <trkpt lat="44.92440892817342" lon="6.360734411189976">
        <time>1970-01-01T00:00:00+00:00</time>
        <ele>3847.0</ele>
      </trkpt>
      <trkpt lat="44.924361904231226" lon="6.360489214919968">
        <time>1970-01-01T00:00:00+00:00</time>
        <ele>3852.0</ele>
      </trkpt>
      <trkpt lat="44.92431488028904" lon="6.3602440186499605">
        <time>1970-01-01T00:00:00+00:00</time>
        <ele>3857.0</ele>
      </trkpt>
      <trkpt lat="44.92427" lon="6.36001">
        <time>1970-01-01T00:00:00+00:00</time>
        <ele>3864.0</ele>
      </trkpt>
      <trkpt lat="44.92427" lon="6.36001">
        <time>1970-01-01T00:00:00+00:00</time>
        <ele>3864.0</ele>
      </trkpt>
      <trkpt lat="44.92423496130749" lon="6.359760835964384">
        <time>1970-01-01T00:00:00+00:00</time>
        <ele>3870.0</ele>
      </trkpt>
      <trkpt lat="44.92419992261499" lon="6.359511671928765">
        <time>1970-01-01T00:00:00+00:00</time>
        <ele>3877.0</ele>
      </trkpt>
      <trkpt lat="44.92418" lon="6.35937">
        <time>1970-01-01T00:00:00+00:00</time>
        <ele>3881.0</ele>
      </trkpt>
      <trkpt lat="44.92418" lon="6.35937">
        <time>1970-01-01T00:00:00+00:00</time>
        <ele>3881.0</ele>
      </trkpt>
      <trkpt lat="44.924000207771904" lon="6.359362808310876">
        <time>1970-01-01T00:00:00+00:00</time>
        <ele>3897.0</ele>
      </trkpt>
      <trkpt lat="44.92393" lon="6.35936">
        <time>1970-01-01T00:00:00+00:00</time>
        <ele>3904.0</ele>
      </trkpt>
      <trkpt lat="44.92393" lon="6.35936">
        <time>1970-01-01T00:00:00+00:00</time>
        <ele>3904.0</ele>
      </trkpt>
      <trkpt lat="44.92375023782676" lon="6.359368560103488">
        <time>1970-01-01T00:00:00+00:00</time>
        <ele>3919.0</ele>
      </trkpt>
      <trkpt lat="44.92372" lon="6.35937">
        <time>1970-01-01T00:00:00+00:00</time>
        <ele>3922.0</ele>
      </trkpt>
      <trkpt lat="44.92372" lon="6.35937">
        <time>1970-01-01T00:00:00+00:00</time>
        <ele>3922.0</ele>
      </trkpt>
      <trkpt lat="44.923540584850315" lon="6.35938794151497">
        <time>1970-01-01T00:00:00+00:00</time>
        <ele>3939.0</ele>
      </trkpt>
      <trkpt lat="44.92352" lon="6.35939">
        <time>1970-01-01T00:00:00+00:00</time>
        <ele>3941.0</ele>
      </trkpt>
      <trkpt lat="44.92352" lon="6.35939">
        <time>1970-01-01T00:00:00+00:00</time>
        <ele>3941.0</ele>
      </trkpt>
      <trkpt lat="44.923340689728796" lon="6.359409923363467">
        <time>1970-01-01T00:00:00+00:00</time>
        <ele>3957.0</ele>
      </trkpt>
      <trkpt lat="44.92334" lon="6.35941">
        <time>1970-01-01T00:00:00+00:00</time>
        <ele>3957.0</ele>
      </trkpt>
      <trkpt lat="44.92334" lon="6.35941">
        <time>1970-01-01T00:00:00+00:00</time>
        <ele>3957.0</ele>
      </trkpt>
      <trkpt lat="44.92321" lon="6.35944">
        <time>1970-01-01T00:00:00+00:00</time>
        <ele>3971.0</ele>
      </trkpt>
      <trkpt lat="44.92321" lon="6.35944">
        <time>1970-01-01T00:00:00+00:00</time>
        <ele>3971.0</ele>
      </trkpt>
      <trkpt lat="44.9230333982732" lon="6.359488164107309">
        <time>1970-01-01T00:00:00+00:00</time>
        <ele>3993.0</ele>
      </trkpt>
      <trkpt lat="44.92299" lon="6.3595">
        <time>1970-01-01T00:00:00+00:00</time>
        <ele>3999.0</ele>
      </trkpt>
      <trkpt lat="44.92299" lon="6.3595">
        <time>1970-01-01T00:00:00+00:00</time>
        <ele>3999.0</ele>
      </trkpt>
      <trkpt lat="44.92281013567881" lon="6.3595">
        <time>1970-01-01T00:00:00+00:00</time>
        <ele>4022.0</ele>
      </trkpt>
      <trkpt lat="44.92281" lon="6.3595">
        <time>1970-01-01T00:00:00+00:00</time>
        <ele>4022.0</ele>
      </trkpt>
      <trkpt lat="44.92281" lon="6.3595">
        <time>1970-01-01T00:00:00+00:00</time>
        <ele>4022.0</ele>
      </trkpt>
      <trkpt lat="44.92263068974243" lon="6.359480076638047">
        <time>1970-01-01T00:00:00+00:00</time>
        <ele>4044.0</ele>
      </trkpt>
      <trkpt lat="44.92263" lon="6.35948">
        <time>1970-01-01T00:00:00+00:00</time>
        <ele>4044.0</ele>
      </trkpt>
      <trkpt lat="44.92263" lon="6.35948">
        <time>1970-01-01T00:00:00+00:00</time>
        <ele>4044.0</ele>
      </trkpt>
      <trkpt lat="44.92245242031053" lon="6.359439640979666">
        <time>1970-01-01T00:00:00+00:00</time>
        <ele>4060.0</ele>
      </trkpt>
      <trkpt lat="44.92241" lon="6.35943">
        <time>1970-01-01T00:00:00+00:00</time>
        <ele>4064.0</ele>
      </trkpt>
      <trkpt lat="44.92241" lon="6.35943">
        <time>1970-01-01T00:00:00+00:00</time>
        <ele>4064.0</ele>
      </trkpt>
      <trkpt lat="44.92226" lon="6.35937">
        <time>1970-01-01T00:00:00+00:00</time>
        <ele>4069.0</ele>
      </trkpt>
      <trkpt lat="44.92226" lon="6.35937">
        <time>1970-01-01T00:00:00+00:00</time>
        <ele>4069.0</ele>
      </trkpt>
      <trkpt lat="44.92213" lon="6.35937">
        <time>1970-01-01T00:00:00+00:00</time>
        <ele>4067.0</ele>
      </trkpt>
      <trkpt lat="44.92213" lon="6.35937">
        <time>1970-01-01T00:00:00+00:00</time>
        <ele>4067.0</ele>
      </trkpt>
      <trkpt lat="44.92203" lon="6.35937">
        <time>1970-01-01T00:00:00+00:00</time>
        <ele>4063.0</ele>
      </trkpt>
      <trkpt lat="44.92203" lon="6.35937">
        <time>1970-01-01T00:00:00+00:00</time>
        <ele>4063.0</ele>
      </trkpt>
      <trkpt lat="44.92197" lon="6.35939">
        <time>1970-01-01T00:00:00+00:00</time>
        <ele>4058.0</ele>
      </trkpt>
    </trkseg>
  </trk>
</gpx>
